GFSGBSN_sfc_wetblb_120.txt.gz
Wetbulb
55.86 55.53 55.72 56.01 55.56 54.51 54.39 55.17 55.64 55.70 55.84 56.10 55.86 55.98 55.87 56.05 56.24 56.68 56.68 57.19 57.83 57.93 57.14 55.77 54.58 53.07 48.13 46.38 48.48 55.66 59.87 58.43 52.86 51.36 48.66 47.86 45.56 44.44 41.40 43.17 43.86 41.74 43.14 44.89 45.77 45.77 45.05
55.40 55.41 55.64 55.83 54.51 53.54 53.57 54.67 54.41 54.69 54.71 54.48 54.74 55.16 55.41 55.29 55.54 56.09 55.83 55.81 56.71 57.19 56.43 55.38 52.59 52.14 44.63 40.61 53.30 56.17 56.45 52.93 50.43 48.68 47.85 47.97 46.71 47.12 44.43 43.35 41.81 44.48 44.11 43.64 44.48 44.43 45.05
54.02 54.26 54.27 54.28 54.17 53.58 53.21 54.63 54.55 54.17 54.28 54.62 54.98 55.04 54.81 54.69 54.71 54.81 55.40 55.20 56.07 56.59 55.87 54.01 51.42 49.06 43.60 44.30 53.52 52.99 53.73 52.83 53.54 50.89 49.19 51.43 50.56 46.49 45.14 43.09 46.67 44.64 40.20 42.13 41.92 42.77 42.59
53.33 53.55 53.31 54.04 54.11 53.83 53.95 53.91 54.76 54.18 54.28 55.00 55.12 54.59 54.04 54.14 54.02 54.08 54.32 54.63 55.10 56.19 55.08 52.55 50.91 46.45 41.81 52.34 51.61 51.40 51.42 51.04 54.17 55.22 52.20 51.38 50.27 47.58 44.63 45.49 43.47 40.07 38.74 33.04 41.48 43.35 44.61
53.07 53.10 53.02 53.17 53.29 53.57 53.52 53.89 54.17 54.74 54.72 54.68 54.06 53.73 53.38 53.45 53.39 53.72 54.41 54.73 55.50 55.26 52.89 51.12 45.47 43.08 40.29 53.05 48.60 53.92 53.33 51.10 53.52 54.26 51.07 53.19 49.85 44.57 43.78 37.58 34.04 35.96 30.34 32.97 37.03 43.95 42.20
52.94 52.85 52.68 53.19 53.05 52.82 53.21 53.53 53.73 54.03 54.19 53.36 53.40 53.61 53.24 53.20 53.37 53.54 53.47 53.17 53.02 50.98 49.81 50.09 47.47 41.25 44.03 46.01 51.57 54.36 53.80 53.52 51.59 49.92 47.93 46.53 41.56 37.84 36.53 34.57 26.98 30.69 31.48 31.16 32.75 38.31 41.10
53.34 53.05 52.90 53.26 53.38 51.85 51.96 53.01 53.89 53.35 52.93 52.89 52.95 53.18 53.05 52.91 53.24 52.47 49.77 46.76 41.75 41.35 44.60 40.72 40.66 42.45 45.91 50.29 51.85 51.01 53.31 51.70 48.93 45.72 38.75 40.89 34.53 30.83 36.18 36.35 37.91 36.94 35.37 34.53 37.34 40.82 39.10
54.33 53.29 53.88 53.17 52.74 52.18 51.55 52.16 52.98 52.53 52.84 52.49 52.66 52.70 52.87 52.77 52.89 52.55 50.74 43.97 46.07 47.98 40.26 44.71 46.29 44.82 47.65 48.81 44.26 47.98 50.69 44.46 42.39 37.22 39.34 36.59 32.22 37.75 39.85 39.26 37.96 37.02 35.32 35.19 39.14 41.90 40.22
52.76 52.69 53.36 53.38 52.84 52.39 51.92 52.18 52.69 52.00 52.03 52.06 52.17 52.21 52.13 52.14 52.33 51.48 48.54 46.50 50.90 48.98 38.53 42.62 45.79 44.65 46.18 48.28 43.24 44.36 47.71 45.08 41.29 37.41 37.30 34.05 37.47 41.68 39.69 38.36 37.13 37.29 35.54 35.89 35.96 39.31 37.98
52.35 52.49 52.82 53.00 52.78 52.59 52.18 52.38 52.52 52.37 52.20 51.66 51.50 51.62 51.11 51.35 46.64 46.52 45.76 49.61 49.99 49.66 34.01 35.47 41.98 44.92 47.44 48.62 43.04 49.37 49.71 45.34 41.68 38.69 39.67 37.75 42.15 40.24 39.58 38.18 39.06 33.77 39.25 39.11 37.47 33.10 27.86
52.24 52.12 52.20 52.47 51.99 52.20 51.66 51.85 52.45 52.43 52.47 52.07 51.26 51.13 50.95 51.91 46.87 45.46 45.60 48.73 48.66 46.38 13.85 37.75 42.19 50.78 48.80 44.29 44.67 45.33 49.76 45.02 39.56 39.75 39.09 36.38 37.98 37.76 37.23 38.74 41.06 37.40 42.07 39.90 36.95 32.33 29.37
51.81 51.83 51.97 51.97 51.78 51.64 51.79 51.75 51.75 51.83 52.13 52.14 51.40 51.00 50.83 47.26 47.43 47.41 50.19 49.58 47.04 24.34 16.36 35.69 42.97 42.09 41.66 43.29 43.89 45.31 45.04 46.72 45.84 40.30 40.14 39.55 43.61 41.19 40.36 42.36 41.98 43.18 39.34 36.02 33.48 30.64 24.20
50.89 51.18 51.24 51.49 51.16 51.26 51.44 51.67 51.47 51.39 51.44 51.75 51.45 51.18 48.80 48.15 43.76 48.47 47.76 47.23 31.31 20.39 36.36 34.44 37.53 41.68 40.89 39.71 40.81 41.85 40.37 38.19 35.23 31.86 32.23 37.62 38.22 40.19 42.71 37.89 40.60 38.79 33.58 27.10 22.61 21.74 22.02
50.41 50.23 50.15 50.17 50.43 50.63 51.13 50.86 50.78 50.88 51.00 51.28 50.72 50.19 48.18 47.60 47.71 47.63 47.54 38.96 23.25 30.04 31.56 39.05 38.27 37.53 36.30 39.19 39.12 40.28 37.04 34.21 37.51 35.63 30.72 28.38 26.11 36.41 40.84 37.79 35.40 35.99 34.99 27.22 20.35 20.98 22.16
50.00 49.92 49.73 49.86 49.74 50.39 50.33 50.58 50.42 50.20 50.30 50.55 49.71 43.66 43.38 47.20 48.69 47.32 42.41 29.51 25.56 30.83 36.58 35.68 36.76 32.95 33.00 36.35 37.19 37.09 36.58 35.78 37.90 37.77 31.51 28.69 29.82 38.67 39.41 39.94 39.44 34.26 28.99 35.15 29.58 28.20 24.28
49.00 49.09 48.99 49.12 49.40 49.79 49.78 49.87 50.13 49.94 49.87 49.48 42.73 38.92 39.72 49.78 49.96 45.42 36.96 31.13 31.75 37.67 38.62 37.73 31.77 35.67 31.82 34.00 34.17 33.68 34.20 38.53 37.66 40.34 40.61 35.12 28.89 36.65 38.86 38.16 37.07 36.22 37.08 27.01 28.64 22.21 20.19
48.57 48.41 48.23 48.57 49.12 48.86 48.88 49.15 49.17 49.27 49.41 49.05 42.85 34.86 39.54 46.82 48.09 40.76 31.06 30.53 34.61 39.39 40.06 37.14 34.60 33.47 35.02 34.49 35.98 34.52 35.52 38.79 39.51 38.79 39.19 36.44 32.95 31.45 36.06 32.54 30.43 30.70 29.12 30.03 32.18 29.34 21.59
47.13 47.49 47.59 47.91 48.25 48.34 48.51 48.35 48.70 48.70 48.92 46.08 39.90 31.83 40.17 48.03 35.77 35.62 32.68 34.87 39.25 38.03 40.28 37.59 38.01 36.51 34.73 36.41 34.58 34.71 35.36 38.13 40.87 39.06 35.17 37.07 31.64 26.80 30.90 37.24 36.83 33.74 31.30 32.42 25.98 23.54 25.31
46.50 46.78 46.88 47.00 47.33 47.79 47.89 48.28 48.60 48.87 48.24 41.08 33.64 32.24 42.66 42.83 30.29 31.45 35.68 35.13 37.45 36.85 38.48 38.31 37.29 38.96 38.79 35.52 30.58 34.44 36.80 40.37 41.14 38.82 36.10 36.12 29.84 24.07 26.25 31.17 34.57 32.39 34.07 34.59 33.64 30.93 25.38
45.44 46.09 46.17 46.12 46.73 47.23 47.24 47.33 47.57 48.16 48.65 42.29 34.86 29.40 33.49 36.93 38.12 34.00 31.79 33.01 34.28 39.40 38.12 39.28 38.56 39.78 37.70 34.69 36.44 34.14 33.14 37.34 38.86 38.11 42.65 39.29 31.42 27.35 24.08 27.49 31.21 27.70 31.77 33.63 31.57 26.30 25.51
44.70 45.00 45.47 45.52 46.12 46.38 46.71 46.75 46.86 47.23 47.73 41.42 36.46 32.37 32.11 27.87 31.16 34.13 35.57 33.94 32.20 32.67 38.73 39.57 35.99 36.16 35.29 30.42 32.04 31.74 33.43 33.49 36.58 39.75 36.00 33.29 26.93 29.65 31.66 33.38 34.16 32.05 31.65 32.05 29.33 29.95 25.68
44.02 44.16 44.48 44.74 45.21 45.23 45.41 45.94 46.13 46.55 46.89 39.39 32.87 33.08 36.48 30.91 33.06 32.96 34.01 32.82 32.56 34.29 35.59 35.21 34.84 36.67 36.78 33.63 33.63 32.13 33.40 31.63 32.00 36.08 33.00 33.78 26.91 26.47 25.54 31.32 31.33 29.34 30.83 30.42 29.69 30.30 30.34
43.50 43.55 43.79 44.13 44.45 44.63 44.93 45.54 45.86 45.95 45.57 38.29 38.03 41.21 37.79 34.42 32.56 31.20 31.18 32.56 33.90 36.84 37.77 38.41 37.16 36.20 34.73 36.66 38.62 39.07 39.71 38.14 38.45 33.74 31.02 29.68 27.62 23.97 21.06 27.35 25.94 22.04 26.13 28.47 29.94 31.51 30.14
42.93 43.37 43.64 43.80 44.28 44.48 44.58 45.08 45.58 46.00 45.14 40.55 40.89 39.51 34.03 29.56 32.47 32.31 33.08 33.86 33.49 34.54 34.38 38.83 39.83 37.13 39.15 41.26 40.77 39.66 38.48 36.87 38.45 36.90 35.97 29.31 27.86 26.64 23.34 23.81 15.47 26.27 32.33 31.89 29.15 28.37 30.72
42.58 42.76 43.33 43.58 43.82 44.11 44.64 44.76 45.12 45.55 46.09 40.47 41.47 39.33 35.31 29.82 33.55 33.71 33.72 33.50 34.43 35.72 35.94 37.69 39.28 41.42 41.47 38.07 31.29 27.79 27.20 29.03 30.75 34.46 33.74 34.05 27.64 22.02 18.51 18.67 23.25 27.17 27.21 23.63 22.91 24.09 28.17
42.18 42.55 43.06 43.17 43.77 44.02 44.38 44.84 45.05 45.34 46.03 42.42 41.37 42.90 38.82 34.09 30.38 36.03 34.41 34.80 31.91 31.06 34.28 36.41 41.25 42.60 39.99 32.41 29.02 23.25 21.09 24.87 22.76 28.02 33.94 32.18 30.47 22.28 19.70 15.81 6.57 17.08 29.46 32.58 28.86 16.76 27.21
42.83 42.94 43.13 43.40 43.53 43.80 44.04 44.46 44.74 44.93 45.12 43.02 41.06 42.56 39.60 33.34 36.59 37.01 33.86 33.23 38.42 35.71 33.19 34.47 35.87 37.12 37.01 27.76 25.86 23.32 22.79 29.82 21.86 22.12 23.52 23.91 23.50 20.56 18.41 15.21 21.11 28.06 29.21 32.60 18.35 17.10 26.56
42.83 42.99 42.84 43.02 43.33 43.59 43.93 44.14 44.24 44.76 45.12 42.20 39.69 44.16 39.75 35.03 36.76 39.06 39.91 35.27 38.61 36.03 31.22 33.84 32.11 32.13 31.01 27.42 26.51 25.65 24.83 26.78 25.73 26.99 24.87 23.09 21.96 17.34 16.73 12.14 13.59 28.08 28.91 24.67 24.97 25.77 27.02
43.24 43.29 42.59 41.89 42.37 43.00 43.98 44.04 44.70 45.10 45.34 44.42 39.18 44.06 44.27 38.19 36.80 41.93 42.06 43.47 42.37 39.20 35.79 32.74 32.38 32.06 33.03 29.85 29.21 29.22 25.61 22.80 26.05 22.26 30.93 20.76 23.73 19.95 22.60 18.28 25.30 27.99 24.55 30.18 31.99 29.07 28.34

GFSGBSN_sfc_wetblb_123.txt.gz
Wetbulb
57.67 57.18 56.76 56.34 56.13 54.81 54.71 55.37 55.06 55.15 55.61 55.33 55.08 55.25 55.15 55.35 55.55 55.99 55.84 55.52 56.35 57.74 57.90 56.98 54.72 53.78 48.45 45.19 46.24 54.20 60.35 58.35 51.34 49.50 46.35 45.94 44.05 42.42 39.35 41.15 42.22 39.68 40.97 43.16 44.19 43.90 42.88
56.74 56.26 56.08 56.48 55.25 54.22 54.14 54.82 53.94 54.43 54.04 54.27 54.81 54.75 54.61 54.00 54.09 54.54 55.05 55.31 55.25 56.64 57.12 55.83 52.99 52.28 44.39 39.83 50.28 53.76 52.58 52.10 49.40 46.96 46.08 45.88 44.44 45.40 42.75 41.60 39.70 42.18 42.11 42.11 43.28 43.67 43.67
55.29 55.17 55.44 56.03 54.96 53.85 53.29 54.33 53.85 53.62 53.92 54.22 54.63 54.26 53.81 53.46 53.52 53.68 54.05 54.58 54.75 55.72 56.42 54.45 51.93 49.08 43.89 43.60 50.47 49.94 50.81 50.01 50.95 50.56 47.88 49.01 48.28 44.34 43.84 41.84 44.26 43.58 39.24 40.77 42.06 43.63 41.62
54.45 54.08 54.09 54.41 54.24 53.79 53.41 53.45 54.29 53.97 53.86 54.36 53.88 53.62 53.01 53.13 53.34 53.55 53.79 54.20 54.54 54.85 55.54 52.99 51.19 46.93 42.29 51.96 49.88 49.90 49.15 49.82 51.83 52.11 52.17 52.26 48.47 44.99 42.79 44.24 42.28 39.16 37.69 33.43 41.17 43.19 43.38
53.70 53.55 53.77 53.68 53.07 53.01 53.10 53.12 53.53 54.26 54.39 54.06 53.40 53.19 53.05 52.81 53.14 53.39 53.98 54.59 55.03 54.99 53.21 51.47 45.18 44.75 40.95 52.24 47.02 50.76 52.11 50.31 52.29 52.85 52.67 53.99 47.80 42.51 42.16 37.10 33.67 34.50 29.19 31.78 36.51 42.62 40.93
53.64 53.44 53.33 52.83 53.24 53.25 53.31 53.18 53.28 53.61 53.87 52.96 52.61 52.76 52.82 52.48 52.98 53.04 52.37 53.06 52.81 51.33 50.41 50.35 48.10 40.21 43.20 43.98 49.79 53.01 52.40 52.77 50.81 50.51 47.91 46.46 40.83 36.28 34.98 33.47 27.05 30.53 30.77 28.70 32.32 38.79 40.61
53.66 53.23 52.93 53.22 53.12 52.24 51.71 52.14 52.97 53.11 52.59 52.28 52.09 52.05 52.49 52.36 52.90 52.31 49.04 44.59 40.96 40.25 44.72 39.45 39.94 41.58 43.91 48.38 50.68 48.58 53.08 51.28 48.98 45.25 39.06 41.08 35.65 31.26 35.64 35.40 35.96 34.36 32.56 31.42 33.93 39.00 37.28
54.32 54.33 53.76 53.83 53.40 52.74 52.07 51.96 52.65 52.09 52.07 51.72 51.80 51.93 51.83 52.13 52.27 52.31 46.89 41.13 42.74 46.28 39.33 44.14 44.50 43.55 46.42 46.78 42.37 46.28 49.52 45.37 42.42 37.09 39.02 35.87 31.40 37.56 38.71 38.10 36.33 34.89 32.43 31.97 35.78 39.53 37.88
53.28 53.80 53.50 53.83 53.74 53.10 52.51 52.07 52.22 51.90 51.90 51.50 51.53 51.65 51.21 51.29 51.56 49.45 42.97 43.81 48.16 48.82 37.72 41.07 44.59 43.45 44.37 46.67 41.51 41.72 46.04 43.92 39.69 36.78 36.56 33.27 36.91 40.89 38.42 36.31 34.83 34.42 32.77 33.52 34.04 36.78 36.89
52.34 52.08 52.47 52.52 53.91 53.53 53.33 52.64 52.63 52.36 51.78 51.47 50.99 51.24 50.58 50.89 44.57 44.12 42.71 47.21 47.48 50.17 32.57 33.31 40.41 43.93 46.31 46.68 40.99 47.25 47.68 44.24 40.66 37.34 37.39 35.67 39.79 38.16 36.51 35.34 36.22 31.06 37.87 37.23 36.51 32.90 28.92
52.55 52.40 51.93 52.45 52.95 52.59 52.34 52.05 52.47 52.40 51.97 52.08 51.21 50.88 50.62 51.08 45.35 41.82 44.38 47.50 48.88 44.21 14.86 35.61 40.97 49.32 47.29 43.28 43.58 44.36 48.28 43.84 37.75 38.20 38.01 35.30 36.91 36.22 35.54 37.12 39.25 35.49 40.29 38.17 37.10 31.76 28.90
51.90 52.05 52.24 52.11 51.99 51.84 52.03 51.78 51.78 52.18 52.04 52.02 51.63 51.01 50.55 45.33 46.10 45.79 48.20 49.57 45.78 21.37 16.55 32.84 41.97 41.18 40.71 42.41 42.46 44.29 44.47 45.84 44.38 39.15 38.26 37.54 40.93 39.58 38.37 40.89 40.24 41.38 37.68 35.38 32.73 30.15 25.75
51.18 51.51 51.53 51.44 51.38 51.54 51.39 51.79 51.75 51.68 51.53 51.77 51.53 51.34 48.45 46.59 41.71 46.64 47.35 46.77 29.16 16.56 33.77 31.95 36.17 40.18 38.98 37.99 39.52 41.03 39.53 38.07 34.84 31.82 31.45 35.07 36.87 39.64 41.84 36.76 38.50 36.62 32.30 28.17 23.39 21.72 22.06
51.01 50.89 50.95 50.82 50.96 50.63 50.80 51.13 51.07 50.83 51.02 51.15 50.95 50.28 47.58 45.99 45.36 45.97 47.43 37.87 21.05 27.96 29.04 37.01 36.00 36.69 36.15 38.27 38.35 38.90 36.05 33.77 37.36 34.93 29.74 28.19 26.34 34.90 39.12 36.38 33.94 34.28 32.96 25.07 20.15 20.59 21.54
50.47 50.45 50.60 50.39 50.34 50.55 50.11 50.44 50.80 50.29 50.05 50.64 49.79 42.26 43.67 44.19 47.16 45.20 42.00 29.13 25.27 29.05 35.08 33.53 34.30 30.34 30.11 35.12 36.29 36.36 35.30 34.84 36.29 37.19 31.09 27.99 28.55 36.58 38.73 39.13 38.57 33.08 29.91 34.36 27.81 27.15 23.98
49.54 50.05 49.85 49.82 49.68 50.00 49.92 50.05 49.98 50.13 50.01 49.57 41.26 40.80 38.75 45.95 46.60 44.16 36.24 29.31 31.28 36.39 36.70 36.49 30.19 33.27 29.01 31.53 32.21 31.73 32.40 37.18 37.14 38.48 38.46 33.65 27.44 35.16 37.47 36.87 35.77 35.19 36.44 26.82 26.44 20.98 19.77
49.05 49.23 49.54 49.61 49.39 49.25 49.11 49.18 49.62 49.53 49.51 48.57 40.04 32.01 37.69 45.69 47.54 39.63 28.79 29.02 33.00 38.15 38.57 35.62 33.01 31.72 32.72 32.96 33.74 33.09 33.80 37.50 38.35 36.83 37.09 34.02 31.19 30.13 34.97 32.13 30.28 29.82 28.60 29.58 30.28 26.45 21.33
48.16 48.42 48.58 48.74 48.76 48.59 48.63 48.88 49.03 48.98 48.95 45.06 37.29 30.27 37.73 47.41 35.24 35.03 30.36 32.19 37.37 35.56 38.70 36.39 36.08 34.15 32.48 33.67 32.46 33.74 33.49 36.90 39.59 38.20 35.81 37.57 33.05 27.01 31.17 35.99 35.18 32.07 30.20 30.02 24.29 23.55 25.05
47.02 47.47 47.89 48.15 48.24 48.17 48.16 48.13 48.18 48.16 47.99 41.78 33.64 33.09 39.31 43.30 29.12 30.90 33.60 33.61 35.00 34.67 35.34 35.98 35.74 36.11 37.51 33.50 29.76 33.91 35.36 39.49 40.44 37.34 33.95 35.55 27.88 24.90 28.31 29.81 33.41 31.12 32.33 32.98 31.95 28.83 25.11
45.73 46.26 46.80 47.11 47.25 47.59 47.68 47.81 47.71 47.71 47.88 42.30 34.86 28.67 32.90 37.89 36.53 31.84 30.40 31.47 32.04 36.95 35.67 36.86 36.63 37.79 35.90 34.30 35.49 32.68 32.80 36.95 38.64 37.84 42.36 38.90 29.85 27.56 24.72 27.07 30.87 28.79 31.48 32.94 31.23 24.89 25.81
44.72 45.36 45.96 46.36 47.02 47.23 47.07 47.44 47.62 47.62 47.49 40.72 35.70 31.72 34.21 28.57 30.21 33.32 33.32 31.49 29.93 31.33 36.96 38.06 34.30 34.57 33.31 30.49 30.74 31.07 34.07 34.42 35.63 39.17 35.62 33.88 27.36 28.98 30.53 32.49 33.25 31.93 32.03 32.69 30.06 29.61 25.93
43.96 44.43 45.22 45.81 45.77 46.60 46.59 46.80 46.83 47.41 47.25 38.41 31.93 30.83 35.85 32.61 30.90 29.67 32.34 31.58 30.10 31.77 32.87 33.01 33.47 34.72 34.90 31.87 32.57 30.77 33.33 30.99 32.31 34.82 31.29 32.80 26.64 27.67 26.63 31.04 31.65 29.41 31.11 30.86 31.38 31.26 29.60
43.53 43.99 44.40 44.91 45.36 45.49 45.71 46.24 46.45 46.50 45.48 36.46 35.81 36.28 34.44 30.98 32.35 29.10 28.27 30.17 31.55 34.16 36.21 36.63 35.27 34.16 33.37 35.63 38.02 38.34 38.60 37.19 36.17 33.66 30.55 30.36 28.44 26.57 24.33 27.76 26.29 21.62 27.41 29.35 30.49 30.31 28.60
43.05 43.50 43.94 44.23 44.62 44.84 44.99 45.51 45.95 46.02 45.15 37.14 36.69 35.11 31.49 26.17 30.12 30.42 31.15 31.07 31.32 32.91 31.93 35.87 36.77 34.28 37.70 40.11 39.24 38.10 37.40 35.74 36.48 36.73 35.47 29.56 29.57 28.46 24.56 24.17 15.44 25.58 30.69 30.91 28.35 28.08 29.99
42.50 43.08 43.60 43.72 43.94 44.19 44.64 45.01 45.27 45.81 45.85 38.82 36.90 36.12 32.96 26.13 29.22 30.37 31.95 33.77 33.05 33.54 33.59 34.14 37.18 39.48 42.26 38.52 32.67 29.21 28.54 29.71 31.41 36.95 37.02 34.79 30.15 25.37 20.29 19.52 22.95 25.32 26.85 22.31 22.37 23.62 27.66
42.29 42.56 42.95 43.22 43.94 44.11 44.46 44.60 44.93 45.24 45.92 40.70 38.29 38.40 37.52 28.64 27.39 33.16 33.03 35.21 32.08 31.74 31.99 34.52 39.01 42.06 40.78 32.47 30.39 24.94 22.74 27.06 23.89 27.98 36.36 32.67 32.63 25.16 19.80 16.29 7.55 18.17 29.32 31.20 27.38 17.01 26.65
42.19 42.36 42.59 42.96 43.38 43.76 43.80 44.34 44.77 45.15 45.40 41.34 37.28 39.80 36.91 31.37 33.16 34.29 30.90 31.03 35.30 33.77 31.88 34.96 37.57 37.62 38.76 30.68 26.77 24.70 23.57 29.38 23.33 23.45 24.97 26.29 24.72 23.39 20.19 16.72 21.19 27.62 29.11 30.97 16.00 17.18 26.33
42.33 42.42 42.75 43.02 43.29 43.47 43.63 43.84 44.29 44.91 45.29 42.40 38.78 40.67 37.12 32.85 34.59 37.81 38.07 35.25 34.77 33.99 31.58 35.13 34.31 34.19 31.75 28.32 27.02 25.18 22.43 26.07 24.85 25.72 26.31 25.16 23.13 20.17 19.09 15.50 15.80 28.95 28.55 23.51 22.37 24.78 26.30
42.40 42.57 42.75 42.78 42.88 43.12 43.46 43.86 44.48 44.74 44.84 44.18 34.72 41.49 41.90 36.07 34.24 41.20 39.64 40.66 39.97 40.60 36.76 36.20 34.17 32.33 33.41 29.50 28.48 28.61 24.94 21.24 24.85 20.83 30.35 20.80 23.43 20.19 23.55 21.27 24.97 27.37 23.47 27.09 28.36 25.63 27.33

GFSGBSN_sfc_wetblb_129.txt.gz
Wetbulb
58.24 58.73 58.09 57.53 56.83 55.80 55.26 55.88 55.06 54.98 55.12 54.59 54.57 54.53 54.13 53.86 53.94 53.98 54.29 54.17 55.04 55.35 56.80 55.84 55.28 54.43 50.98 44.15 43.47 53.30 55.54 54.93 52.56 51.13 49.05 48.54 46.99 45.77 43.60 44.32 44.98 43.19 43.74 45.09 45.91 45.60 46.05
57.96 58.19 57.51 57.14 56.52 55.14 55.02 55.25 53.97 54.44 54.04 54.01 54.09 53.41 52.74 52.79 52.99 53.17 53.78 53.98 54.39 55.02 54.88 55.01 54.31 53.16 47.57 37.74 50.32 52.80 51.32 51.99 51.77 50.17 48.70 48.86 47.46 47.98 45.29 44.14 43.83 44.06 44.29 44.80 45.34 46.89 46.22
57.17 57.17 56.48 56.49 56.28 55.08 54.52 54.83 53.73 53.97 53.46 53.72 53.51 52.69 52.21 52.46 52.83 53.02 53.28 53.82 54.11 54.33 54.61 54.50 53.19 49.06 44.92 41.61 51.60 51.45 50.85 50.69 51.87 51.75 49.29 50.78 50.28 47.41 46.43 43.57 45.94 45.11 42.30 44.25 45.51 45.25 44.45
56.97 56.10 55.69 56.21 56.05 54.61 53.85 53.30 54.27 53.40 53.27 53.50 52.88 52.33 52.27 52.42 52.83 53.31 53.95 54.14 54.25 54.62 54.35 54.13 51.36 48.07 41.11 50.43 51.71 50.15 50.41 50.21 51.28 51.62 51.57 52.38 52.36 47.94 46.19 46.61 44.26 42.13 41.04 39.24 43.35 43.88 43.51
56.19 55.81 55.41 55.55 55.13 54.40 53.78 53.35 53.02 53.17 54.01 53.92 52.21 52.23 52.31 52.18 52.49 53.11 52.65 53.52 54.23 54.46 53.58 52.07 46.99 45.03 38.57 50.73 46.14 50.21 51.53 50.63 50.86 51.08 51.68 53.28 50.31 45.53 45.26 41.02 39.30 38.83 37.03 36.02 39.26 43.51 42.82
55.94 55.62 55.02 54.91 54.71 54.18 53.55 53.25 53.06 53.10 53.49 53.20 51.42 51.10 51.61 51.97 52.35 52.16 51.85 52.47 52.02 51.10 50.40 49.97 47.63 40.42 43.04 42.43 49.08 51.56 51.91 52.74 50.90 49.79 49.40 48.49 44.49 41.45 39.66 39.92 33.79 34.98 34.99 35.64 35.61 41.04 41.86
55.20 54.96 54.76 54.45 54.11 53.36 52.75 52.56 53.33 52.71 52.86 52.23 51.18 50.74 50.91 51.57 52.06 51.66 48.53 45.77 41.20 39.18 44.44 39.00 39.84 39.15 42.44 47.06 49.30 49.06 52.36 51.41 50.29 47.55 42.72 44.06 41.22 38.55 41.41 40.08 38.61 37.48 36.24 35.26 38.03 40.90 38.20
54.82 54.81 54.41 54.06 53.66 53.41 52.72 52.91 52.97 51.75 52.77 52.27 50.88 50.53 50.53 50.73 51.47 51.67 47.08 43.00 44.31 44.82 36.67 42.88 43.19 42.80 45.06 46.63 41.41 44.87 50.01 46.63 44.90 41.62 41.62 39.55 37.79 42.34 41.79 40.61 38.64 38.19 35.78 35.65 37.98 40.16 39.85
53.73 54.10 54.52 54.45 54.39 53.98 53.44 53.32 52.75 52.23 52.18 51.62 50.95 50.43 49.92 50.57 50.73 47.10 44.47 44.28 49.28 47.36 37.40 38.01 43.03 42.56 43.35 44.91 39.62 40.38 45.97 45.46 42.46 39.56 39.58 38.30 40.37 41.51 40.52 38.30 36.81 36.36 34.97 35.27 35.11 38.64 40.17
53.29 53.12 53.48 53.92 53.86 53.65 53.62 53.38 53.04 52.46 51.66 51.33 50.92 50.18 49.73 49.48 44.15 44.17 42.37 46.87 47.05 47.61 30.55 32.23 38.23 42.96 44.93 44.38 39.39 45.83 45.51 44.43 41.50 38.92 38.85 38.63 41.92 39.20 38.02 37.32 38.03 33.14 38.85 37.92 36.33 35.52 31.73
52.58 52.54 52.65 53.05 53.23 52.93 52.77 52.89 52.64 52.35 52.21 51.59 50.93 50.29 49.76 48.08 44.41 42.73 45.77 47.61 47.63 40.97 21.88 35.59 40.30 48.63 46.27 41.27 43.53 44.27 47.54 44.58 38.99 38.80 39.78 37.38 38.69 37.02 36.39 37.72 39.49 36.20 39.89 38.48 37.94 35.87 33.75
52.41 52.29 52.35 52.52 52.44 52.31 52.50 52.46 52.11 51.87 51.96 51.80 51.46 50.65 49.83 46.32 45.66 46.49 47.05 47.66 44.19 27.73 19.89 32.35 41.01 39.98 39.96 42.41 42.82 44.62 43.62 46.15 44.16 40.01 40.11 38.73 42.32 41.15 40.48 40.85 39.99 41.43 39.12 37.68 35.14 34.71 28.72
51.67 51.71 51.94 51.77 51.66 51.73 51.98 52.27 51.88 51.61 51.51 51.69 51.56 51.14 47.79 46.30 41.21 46.66 47.11 46.73 28.61 21.14 32.72 31.57 36.31 39.95 39.27 38.60 39.69 41.17 38.95 38.88 36.17 32.03 32.62 36.89 38.45 41.22 42.17 38.40 40.33 39.66 35.92 29.15 27.65 27.17 26.66
51.19 51.08 51.54 51.45 51.39 51.35 51.22 51.50 51.28 51.26 51.48 51.48 51.10 50.46 48.27 45.89 46.33 46.49 47.76 37.07 18.50 27.98 28.22 34.86 35.27 38.82 36.52 38.86 39.03 39.30 38.26 36.38 39.23 36.90 33.17 31.56 30.11 37.18 40.58 39.36 36.64 36.06 35.85 29.48 22.43 23.84 27.54
50.42 51.14 51.04 50.89 51.04 51.00 51.06 50.91 50.94 50.73 50.77 50.68 48.94 45.76 45.88 45.71 46.94 45.98 42.43 27.15 25.34 27.68 32.75 34.03 33.86 31.18 31.41 35.27 38.16 37.89 36.82 36.35 39.04 39.68 34.48 31.53 31.41 38.69 39.40 40.50 40.69 35.53 32.96 37.24 32.04 29.84 27.37
49.15 49.79 50.42 50.42 50.27 50.71 50.54 50.41 50.42 50.36 50.09 49.26 43.30 42.49 42.05 45.30 46.87 44.08 37.20 29.49 30.95 34.47 36.32 35.71 28.79 33.04 28.64 32.33 33.01 33.97 34.22 37.64 37.48 39.27 40.45 37.18 31.45 36.98 38.52 39.94 38.16 38.11 39.44 31.47 31.52 23.57 21.07
47.67 48.62 49.13 50.01 49.81 49.88 50.12 49.98 50.14 50.07 49.97 47.82 41.33 36.38 39.85 46.21 45.26 38.22 29.80 30.36 32.41 36.86 37.16 34.55 32.26 31.43 33.14 32.65 34.66 33.84 34.44 37.56 40.03 38.84 39.28 37.42 34.28 33.99 37.49 34.85 34.27 34.29 33.50 33.34 34.15 30.42 25.40
47.73 47.94 48.64 49.21 49.53 49.73 49.70 49.68 49.52 49.47 49.39 46.21 38.96 31.09 39.81 46.02 32.66 31.63 30.02 32.43 36.44 34.57 37.47 35.48 36.11 34.29 32.90 34.14 32.16 32.82 34.03 37.36 41.06 40.04 34.81 38.28 34.37 29.69 32.67 37.69 38.46 36.26 35.16 35.54 30.19 27.60 29.94
46.35 47.01 47.53 47.87 48.35 49.26 49.16 49.29 49.28 48.74 48.80 42.42 34.56 33.14 41.08 43.51 26.83 27.39 31.31 32.19 34.08 33.08 33.18 33.88 33.38 35.62 36.13 32.54 28.62 32.64 34.31 39.57 39.54 38.81 36.06 37.35 33.46 27.68 29.67 33.47 36.86 34.02 36.32 35.40 34.46 33.64 29.82
45.52 46.18 46.37 46.15 46.97 48.19 48.71 48.46 48.57 48.76 48.74 43.59 33.94 28.11 32.93 37.79 34.17 30.26 28.08 28.55 29.34 34.64 33.67 33.88 33.75 35.79 34.81 32.75 34.26 31.78 34.33 37.92 40.27 39.97 42.32 40.50 34.22 31.19 26.47 30.47 33.61 31.19 33.02 33.94 33.76 29.14 29.98
44.50 45.24 45.28 45.30 45.20 46.12 47.95 48.36 48.16 48.06 48.08 40.97 35.22 31.18 32.74 26.88 29.30 31.72 31.57 30.63 27.74 27.32 34.40 34.87 32.39 31.93 32.45 30.60 32.12 32.33 34.90 35.85 37.66 39.16 39.04 38.09 30.63 32.58 33.37 34.10 34.00 33.17 33.24 33.72 31.13 32.73 29.21
43.92 44.39 44.49 44.79 44.84 45.25 46.24 47.81 48.07 48.20 47.93 40.88 30.65 32.09 34.63 30.54 32.85 30.64 31.01 29.96 28.80 30.60 31.36 31.29 31.01 33.49 32.73 29.52 31.57 29.69 32.33 33.10 32.82 36.05 35.19 34.86 30.90 30.58 29.77 33.14 32.93 31.12 33.09 33.43 33.66 33.51 33.04
43.31 43.61 43.78 44.14 44.53 44.65 44.88 47.41 47.87 47.72 47.04 37.38 38.25 38.11 35.19 32.24 29.56 29.45 29.04 29.56 29.98 32.60 33.57 34.19 33.60 32.52 32.14 34.19 37.16 38.21 38.28 38.13 37.16 35.60 34.11 33.33 31.52 29.40 25.91 30.56 28.92 25.94 30.87 32.03 33.62 35.33 34.72
42.64 43.19 43.45 43.46 43.77 44.53 44.46 45.70 46.27 47.47 46.21 38.65 38.16 37.41 32.00 27.00 29.59 28.77 29.96 30.70 30.01 30.92 30.15 33.45 34.54 32.70 36.01 40.79 40.48 39.24 38.78 37.93 37.80 37.25 37.83 32.94 31.08 31.03 26.55 26.62 20.38 31.51 31.98 32.53 32.27 34.07 33.94
42.29 42.62 43.04 43.45 43.73 44.17 44.74 45.08 45.34 45.37 46.35 40.21 39.82 37.43 33.34 27.02 30.02 29.80 29.93 30.49 32.08 33.34 32.22 32.64 34.43 36.48 40.53 38.11 31.70 28.40 29.07 30.82 32.52 35.10 35.61 36.51 33.02 28.21 25.20 23.98 27.77 30.39 30.53 28.97 29.27 29.53 33.42
41.93 42.22 42.73 42.88 43.23 43.73 44.65 44.99 45.17 45.63 45.53 40.76 39.59 40.42 36.93 28.49 27.29 31.62 29.65 30.98 28.63 28.54 29.82 32.18 37.73 39.96 38.35 33.86 29.57 23.27 20.83 27.11 27.07 30.10 36.21 35.17 35.28 29.84 27.23 22.19 19.60 27.38 30.17 32.61 31.59 24.81 31.23
41.61 41.83 42.18 42.56 42.94 43.41 43.93 44.42 44.99 44.96 45.53 40.84 38.88 41.55 37.37 29.62 31.72 32.06 28.45 28.30 32.97 31.47 29.57 33.02 34.56 34.80 37.76 31.42 27.00 24.01 23.35 30.26 24.17 25.17 28.19 29.91 29.77 26.66 26.92 24.31 27.25 30.99 31.90 32.27 23.62 27.24 31.18
41.26 41.38 41.70 42.15 42.82 43.32 43.62 43.88 44.53 44.83 44.76 42.65 38.40 40.85 37.40 31.22 32.38 35.20 35.86 32.60 33.54 32.53 27.53 32.39 32.14 33.02 31.81 28.13 27.48 27.50 27.29 29.04 28.97 30.18 29.50 29.10 27.31 26.13 26.76 23.05 21.11 32.23 30.48 27.47 30.68 29.65 31.47
41.74 41.71 41.26 41.98 42.37 43.16 43.34 43.70 43.88 43.80 44.20 43.47 36.76 40.64 40.46 35.24 32.39 36.51 37.18 37.53 36.77 38.02 34.43 34.80 33.62 33.68 35.04 31.51 31.66 30.22 27.61 27.85 28.34 24.70 30.21 27.56 31.98 28.57 29.31 28.56 29.66 33.34 29.94 30.22 31.27 30.61 29.44

GFSGBSN_sfc_wetblb_132.txt.gz
Wetbulb
59.80 60.00 59.37 58.80 57.85 56.93 56.42 56.53 55.66 55.20 55.45 54.83 54.71 54.44 54.05 53.87 53.81 53.75 54.08 54.26 54.18 55.18 56.39 55.85 55.34 55.30 54.07 47.54 46.34 56.51 57.23 59.65 56.76 55.69 53.07 51.50 50.98 50.85 47.91 48.61 49.27 47.72 48.40 49.03 49.92 50.11 50.50
58.13 58.75 57.91 57.42 56.64 55.99 56.28 55.80 54.55 54.82 54.39 54.33 53.83 52.97 52.17 52.30 52.80 52.99 53.44 54.05 54.01 54.88 55.32 55.61 54.41 53.84 50.67 42.97 53.67 56.04 55.62 56.21 56.05 54.91 53.11 53.22 51.27 52.09 48.88 47.97 47.82 48.57 48.46 49.27 50.11 50.50 50.90
57.72 58.09 57.43 57.27 56.72 55.80 55.70 55.12 53.95 54.17 53.90 53.97 53.13 52.06 51.68 52.12 52.44 52.73 53.33 53.92 54.09 54.80 55.04 54.36 53.74 52.79 48.13 46.04 54.03 55.40 54.34 53.95 55.39 55.58 52.18 53.91 53.79 50.43 50.26 47.27 49.78 48.69 46.33 48.54 49.15 49.20 48.33
56.90 57.16 56.53 56.11 56.31 55.18 54.65 54.24 53.98 53.88 53.59 54.01 52.83 51.65 51.54 51.85 52.40 53.25 53.26 54.12 54.84 54.88 54.80 53.96 52.03 51.83 44.89 52.28 55.13 53.22 54.31 53.06 54.18 53.76 54.78 55.48 55.44 51.78 50.24 50.50 48.48 46.04 46.07 43.13 47.20 47.43 47.20
56.20 56.69 56.09 55.83 56.16 54.99 54.22 53.69 54.01 54.04 53.45 53.91 52.34 51.35 51.23 51.61 52.20 52.58 52.20 53.25 53.68 53.94 53.75 52.66 51.22 48.43 43.50 52.19 49.91 54.51 55.21 53.69 54.38 54.16 54.44 55.11 54.08 50.45 49.57 46.36 44.59 45.50 41.00 42.10 43.88 47.14 46.23
55.83 56.16 55.85 55.62 55.45 54.79 54.02 53.79 53.31 53.38 53.79 54.01 51.82 50.94 50.80 51.23 52.03 52.07 51.61 51.62 52.38 52.14 52.83 52.67 51.17 44.45 46.67 44.76 51.89 53.00 56.09 56.11 52.89 52.07 50.86 50.91 50.21 47.23 46.98 45.15 38.74 40.81 40.90 42.43 41.44 45.31 45.53
55.57 55.72 55.90 55.58 54.78 54.28 53.94 53.43 53.64 53.02 53.41 52.81 51.55 50.76 50.49 50.81 51.72 51.73 51.48 51.67 46.52 45.96 47.93 44.68 43.77 43.86 45.14 50.38 51.69 52.17 55.34 54.38 53.09 50.63 45.15 48.68 44.17 42.06 44.12 45.37 44.57 42.86 41.80 41.34 43.94 45.78 43.04
55.28 55.45 55.52 55.25 54.96 53.99 53.64 53.41 53.85 52.90 53.04 52.58 51.63 50.44 50.10 50.38 51.17 51.33 51.87 46.65 46.50 47.98 40.39 45.67 45.20 45.38 47.31 48.90 43.82 49.36 54.26 49.89 48.45 43.54 46.93 44.49 41.75 46.09 46.61 45.74 43.61 43.25 41.48 41.06 43.29 43.81 43.12
54.44 54.65 54.92 54.79 54.61 54.36 53.78 53.65 53.44 52.49 52.98 52.27 51.27 50.40 49.70 50.26 50.48 50.83 49.11 46.13 52.28 51.84 42.04 41.61 44.50 43.95 44.91 46.76 41.77 42.97 50.14 49.05 45.80 43.16 43.88 41.65 43.22 45.40 45.03 43.45 42.01 42.31 40.11 40.22 39.65 42.73 44.50
53.76 53.64 54.18 54.49 54.51 54.32 54.04 53.73 53.25 52.90 52.56 51.74 51.11 50.35 49.89 49.70 46.54 50.00 48.00 51.25 52.91 52.41 37.62 38.52 40.84 45.30 47.33 46.16 42.13 47.97 47.95 45.82 44.28 40.80 42.69 42.39 44.86 43.00 42.07 40.76 42.11 38.17 42.98 41.48 40.14 39.21 36.94
53.33 53.35 53.43 53.46 53.44 53.19 53.17 53.04 52.90 52.87 52.40 51.72 50.93 50.61 50.01 48.73 49.25 47.03 49.37 52.95 52.46 49.40 27.81 38.86 42.64 50.65 48.21 43.54 46.48 46.60 48.81 44.54 40.06 40.88 41.97 39.25 41.33 40.94 40.33 41.27 42.59 39.28 42.56 41.11 41.08 39.94 39.46
52.81 52.90 52.88 52.83 52.79 52.56 52.56 52.54 52.48 52.27 52.26 51.72 51.15 50.75 50.22 48.84 49.38 49.99 50.83 51.64 50.65 35.57 26.35 36.44 43.90 43.43 43.35 44.55 45.31 46.15 44.92 47.93 46.84 41.93 42.75 41.78 45.68 44.42 43.02 43.73 43.77 44.18 42.18 42.07 41.75 39.86 32.69
52.27 52.54 52.60 52.46 52.34 52.23 52.38 52.15 52.20 51.76 51.88 51.71 51.34 51.09 49.02 48.95 44.16 50.38 50.80 49.25 33.44 28.57 36.01 34.99 39.03 42.94 42.43 41.22 43.09 44.55 41.64 41.34 39.89 35.71 36.42 40.22 41.32 44.17 45.21 41.48 43.91 42.89 39.18 33.10 31.54 32.05 31.32
51.62 52.07 52.09 52.07 52.17 51.81 51.73 51.52 51.65 51.19 51.36 51.52 51.09 50.70 48.70 48.58 51.09 50.59 50.51 39.58 26.12 32.31 33.09 38.05 39.10 42.03 38.98 42.29 41.99 42.97 41.92 40.07 42.89 41.01 39.37 35.69 33.71 41.78 45.10 42.97 40.16 41.01 39.81 33.54 24.99 28.32 32.43
51.07 51.27 51.41 51.55 51.61 51.40 51.38 51.31 51.08 50.96 50.68 50.99 50.12 49.73 48.43 49.50 49.98 48.82 44.52 31.19 30.46 33.42 35.72 35.67 36.52 34.05 35.89 40.05 40.66 41.32 41.00 40.44 42.28 44.09 37.13 36.26 35.40 42.75 43.72 44.55 44.20 39.83 36.64 41.99 35.33 36.31 31.86
50.53 50.49 50.99 50.79 50.86 50.90 50.62 50.54 50.79 50.81 50.27 49.75 47.41 45.37 44.72 49.97 50.76 45.27 38.93 31.02 34.20 36.97 38.55 37.80 32.03 34.90 32.73 35.11 36.12 38.04 38.66 41.60 40.19 42.95 45.04 39.84 33.09 39.74 42.09 43.82 43.83 41.78 43.50 34.85 36.03 25.89 25.52
49.98 49.55 49.42 49.95 50.08 50.45 50.51 50.31 50.12 50.46 50.11 49.21 45.11 39.74 46.23 50.57 48.91 40.44 32.53 33.12 35.31 39.46 39.64 36.13 34.45 33.72 34.75 34.54 36.43 35.76 35.55 40.60 42.99 41.15 42.95 41.24 38.03 36.56 40.71 38.95 37.78 38.92 37.57 38.21 37.96 34.86 27.85
46.72 48.55 48.58 48.60 49.05 50.15 50.06 50.39 50.23 49.96 49.48 46.94 40.88 33.08 44.93 49.47 36.44 37.36 32.85 35.29 37.97 36.93 40.19 38.01 37.93 36.90 34.97 35.62 34.61 34.89 34.82 38.78 42.70 40.58 35.37 38.92 36.19 32.66 35.67 42.09 43.05 41.24 38.96 39.07 31.83 30.25 32.67
45.72 46.76 47.63 47.64 47.60 48.69 48.78 49.40 49.90 49.80 48.74 44.07 36.33 36.18 44.56 45.00 31.57 31.85 34.99 34.92 36.56 35.48 36.23 35.89 35.23 37.30 37.56 35.02 31.07 34.64 35.75 40.18 41.95 39.97 38.23 40.14 34.81 29.39 31.59 37.44 41.35 38.15 39.49 38.92 36.22 34.39 31.15
44.57 45.74 46.45 47.34 48.15 48.25 47.89 48.82 48.93 49.22 49.13 43.94 35.95 31.47 35.09 38.49 40.22 35.34 32.64 32.32 32.63 37.30 36.55 36.82 36.08 37.86 36.07 34.22 36.77 33.35 35.30 40.19 42.05 41.23 42.89 42.17 37.20 33.13 28.47 32.39 37.25 34.21 36.98 38.58 36.45 30.97 32.28
43.74 44.72 45.41 46.35 46.90 47.38 47.71 47.28 48.81 49.08 48.91 42.47 37.16 35.07 37.25 29.52 32.26 35.38 35.95 33.54 31.71 31.45 36.32 37.58 35.05 35.82 35.05 32.16 33.70 33.67 36.69 37.79 40.23 41.63 40.41 39.24 32.21 35.00 35.84 36.65 36.74 35.90 35.73 36.55 34.83 36.23 31.88
43.74 44.19 44.84 45.49 45.81 46.74 47.03 47.19 47.43 48.07 48.48 40.92 32.71 35.66 36.53 36.85 35.65 32.88 34.54 32.59 31.70 33.12 33.90 32.62 32.89 35.03 36.02 32.88 34.09 32.48 35.18 36.10 35.10 38.67 38.38 39.49 31.86 34.47 32.11 35.75 36.07 33.74 35.95 36.56 36.39 36.88 36.87
43.14 43.46 44.01 44.74 45.30 45.53 45.91 46.05 46.51 47.65 46.17 34.00 38.80 42.46 39.87 35.40 33.93 30.91 32.13 33.34 33.23 35.44 36.02 36.76 36.11 35.18 33.69 36.12 39.15 40.47 41.08 40.57 39.73 37.46 36.31 36.01 33.30 30.19 26.89 33.81 33.16 28.79 34.10 36.02 37.33 38.78 38.03
42.65 43.15 43.56 44.00 44.61 45.08 45.41 46.16 46.04 46.23 46.54 39.33 39.80 41.45 36.90 31.86 33.51 33.05 33.90 34.65 33.82 34.69 33.42 36.07 37.82 35.14 37.92 42.81 42.08 41.34 40.06 39.14 39.17 38.71 39.56 34.49 32.97 32.17 28.00 30.30 22.25 34.58 38.73 37.74 37.22 39.03 40.35
42.15 42.59 43.32 43.47 43.73 44.33 44.74 45.49 45.80 46.13 47.76 41.70 43.05 41.75 37.71 32.17 34.57 34.30 34.56 34.11 35.45 36.38 34.74 34.99 36.86 39.46 41.73 38.30 32.40 28.94 30.65 32.07 34.14 36.87 36.96 38.38 34.80 29.14 25.54 25.96 30.87 33.84 37.43 34.57 33.12 34.96 39.79
41.63 42.13 42.57 42.92 43.37 43.69 44.34 44.34 44.93 45.38 46.05 42.00 41.26 44.09 40.69 35.09 33.31 37.10 34.24 35.10 32.49 32.54 33.34 34.84 39.49 41.81 40.12 34.79 31.03 24.16 22.51 27.76 27.83 32.47 38.92 37.40 36.62 30.93 28.13 22.84 20.60 33.79 36.42 38.16 37.16 29.26 39.64
41.41 41.90 42.25 42.55 42.82 43.18 43.66 44.42 43.84 44.80 45.21 39.22 36.93 42.43 39.84 34.48 37.07 38.44 34.32 33.75 36.72 34.82 31.76 33.65 35.57 36.43 39.70 31.88 27.75 25.70 25.55 31.73 25.74 26.65 29.53 30.90 30.67 27.05 28.82 26.22 30.25 38.37 37.23 38.20 27.61 32.18 37.14
41.45 41.92 42.05 42.46 42.69 42.83 43.63 44.01 44.08 45.00 44.53 40.53 37.77 41.40 40.11 36.55 37.16 38.87 39.12 35.34 35.53 35.31 30.55 34.68 33.80 35.17 33.85 29.73 29.00 29.44 28.55 30.95 30.60 31.49 30.57 29.90 28.22 28.84 29.96 26.74 25.26 38.02 34.87 30.80 34.79 36.08 37.41
41.40 41.81 41.77 41.80 42.18 42.74 43.10 43.73 43.92 44.47 44.05 41.77 36.07 41.71 43.08 36.83 36.62 40.79 41.25 42.01 40.77 39.97 37.26 36.66 33.96 33.95 35.59 31.80 32.01 33.19 30.11 33.30 31.33 26.38 36.09 29.26 34.45 32.43 32.63 33.06 35.71 38.17 35.90 37.36 37.49 36.62 37.00

GFSGBSN_sfc_wetblb_135.txt.gz
Wetbulb
62.67 62.06 61.19 60.61 59.82 59.10 58.38 57.68 56.64 56.10 55.88 55.39 54.87 54.35 53.69 53.40 53.35 53.24 53.61 53.76 53.95 54.16 55.45 55.43 55.71 55.40 55.54 49.39 49.07 57.80 57.82 59.89 57.73 56.52 54.13 52.44 50.95 52.06 49.28 50.17 50.54 49.28 49.80 50.92 51.57 51.37 51.65
59.72 59.34 58.89 58.14 57.22 57.10 57.13 56.22 55.39 55.59 55.18 54.63 53.96 52.78 51.88 52.24 52.55 52.93 53.27 53.61 53.75 54.11 55.14 55.23 54.64 54.35 52.73 44.90 54.35 56.45 55.99 55.99 55.85 55.41 53.97 53.69 52.36 53.35 50.48 49.83 48.83 50.95 50.82 50.51 51.41 51.45 51.84
57.55 58.39 57.57 56.90 56.24 55.95 56.14 55.29 54.89 54.65 54.61 54.24 53.09 51.82 51.29 51.66 52.25 52.82 53.63 54.13 54.73 54.61 55.04 54.48 54.30 54.22 49.76 48.75 54.74 55.66 55.06 53.86 56.57 56.24 53.03 54.60 54.65 51.62 51.70 49.09 51.75 50.58 47.60 49.84 50.65 51.57 50.83
56.89 57.73 57.15 56.83 56.04 55.76 55.48 54.81 54.39 54.03 54.13 54.20 52.95 51.37 51.10 51.28 51.86 52.80 53.00 53.48 54.73 54.98 54.98 54.24 53.91 53.60 47.17 53.47 55.09 53.45 54.56 53.47 54.63 54.47 53.50 56.47 56.20 53.48 51.58 52.84 50.26 47.85 48.72 45.00 49.57 50.17 50.19
56.36 56.73 56.51 55.70 55.50 54.70 53.73 53.83 54.47 53.91 53.62 54.05 52.46 51.19 50.65 50.89 51.57 52.22 52.40 52.76 53.66 53.70 53.98 54.25 53.75 51.27 45.94 52.21 51.10 56.57 57.43 54.74 53.86 54.27 55.59 55.98 55.07 52.09 51.91 47.48 46.67 48.16 43.97 45.48 47.11 50.16 48.69
55.36 56.45 56.23 55.86 55.60 54.91 53.93 53.22 53.62 54.26 54.45 54.26 52.60 50.90 50.31 50.66 51.32 51.93 52.16 52.20 53.15 52.73 53.83 54.59 52.93 46.26 49.62 46.31 52.87 54.93 58.03 57.23 54.12 53.61 52.35 51.85 51.38 48.36 48.54 46.46 41.22 43.54 44.61 45.89 44.94 48.22 47.72
55.80 55.44 55.90 55.86 55.60 55.17 54.38 53.68 52.98 53.21 53.54 54.24 52.59 51.39 50.29 50.28 51.46 51.90 51.15 52.57 50.16 49.96 50.57 47.33 47.70 47.78 46.75 51.70 53.30 52.54 56.82 55.66 54.15 51.43 47.06 50.78 46.41 44.08 46.48 47.80 47.53 45.98 44.65 43.15 45.82 48.49 46.65
55.33 55.52 55.65 55.62 55.36 55.07 54.59 54.16 53.77 53.27 53.75 53.64 52.38 51.13 50.17 49.98 50.98 51.61 52.43 47.68 48.55 49.49 42.10 47.21 47.19 47.04 48.33 49.49 45.01 48.75 56.23 50.60 49.98 46.10 48.25 46.90 44.13 47.38 47.80 47.52 46.38 45.14 43.26 43.43 46.27 47.65 45.31
54.71 54.58 54.73 55.08 55.34 54.97 54.55 54.31 54.08 53.27 53.62 53.00 51.99 50.46 49.64 49.64 50.77 51.32 50.62 48.20 53.68 53.29 43.92 44.51 46.71 45.96 46.46 48.04 44.33 44.35 51.34 50.25 47.32 45.73 45.64 43.98 46.34 46.87 46.19 45.75 44.04 44.20 42.88 42.97 42.41 45.14 46.23
54.20 54.14 54.46 54.51 54.57 54.69 54.57 54.27 54.08 53.29 53.07 52.34 51.42 50.83 49.81 49.51 46.40 52.90 48.75 53.07 55.19 54.20 39.92 42.12 42.29 46.45 47.88 47.24 43.35 48.39 48.50 48.77 46.33 43.57 44.54 44.16 46.99 45.25 44.07 42.94 43.83 40.32 45.21 43.43 42.34 41.05 37.65
53.52 53.62 53.64 54.01 54.09 53.70 53.56 53.60 53.48 53.23 52.99 52.22 51.34 50.69 50.08 48.26 50.87 48.31 52.08 54.71 54.15 51.66 28.07 42.24 43.68 52.37 50.83 45.59 48.53 48.33 51.52 45.86 41.58 43.69 43.19 41.70 43.16 42.37 41.38 42.72 44.89 41.74 44.69 43.37 42.47 40.91 40.75
52.96 52.92 53.02 53.21 53.21 53.21 53.15 52.99 52.74 52.61 52.66 52.00 51.22 50.68 50.22 48.49 49.89 52.17 53.47 54.32 52.16 37.38 27.92 39.36 45.93 44.63 44.81 45.99 47.27 47.85 46.08 48.74 46.72 43.19 43.90 43.66 47.25 45.53 44.63 45.05 44.81 45.09 43.51 43.63 43.40 41.56 34.61
52.06 52.36 52.59 52.67 52.63 52.67 52.74 52.74 52.35 52.09 52.12 51.83 51.31 51.13 49.47 50.67 46.07 53.60 53.02 49.40 34.70 30.69 39.13 38.08 40.82 44.83 45.12 43.46 45.17 45.69 43.42 42.71 41.27 37.36 38.20 42.14 42.26 45.07 45.72 42.51 45.33 44.09 40.66 34.25 33.65 34.22 33.81
51.35 51.69 51.84 52.05 52.26 52.32 52.32 52.30 52.14 51.86 51.67 51.63 51.20 50.63 49.25 49.68 52.08 52.34 50.86 41.29 28.90 35.71 37.43 41.00 41.07 43.22 40.88 44.05 44.66 45.05 43.08 41.91 44.32 42.94 40.83 37.74 35.70 42.83 45.41 43.17 40.87 42.62 41.03 34.65 27.14 30.28 33.92
50.08 51.08 51.47 51.70 51.93 51.99 51.74 51.72 51.70 51.45 50.92 51.29 50.60 49.49 48.84 50.30 51.72 50.56 44.35 32.69 31.38 36.41 38.36 36.77 39.61 38.52 39.10 42.22 42.56 43.78 43.29 42.33 44.30 44.68 38.46 37.66 36.97 44.99 45.05 45.39 44.27 40.34 38.01 42.90 35.72 37.42 33.17
47.50 49.59 50.87 51.06 51.44 51.43 51.37 51.22 51.12 51.34 50.92 50.87 46.18 45.68 45.82 51.90 52.07 46.67 39.70 33.40 35.79 39.85 39.66 39.07 33.97 36.20 33.89 37.73 37.85 39.98 40.33 42.76 42.39 45.01 46.90 41.50 36.08 42.89 43.67 45.51 45.29 42.67 43.60 35.69 36.76 26.80 26.44
48.08 46.19 48.62 50.64 50.76 50.88 51.04 50.91 50.96 50.87 50.54 50.18 46.66 39.83 48.05 51.46 48.96 40.92 33.81 34.53 37.30 40.78 40.46 37.28 35.71 34.99 36.69 35.79 37.43 37.21 37.87 41.18 43.36 42.53 44.68 43.07 40.15 38.67 41.50 39.53 38.68 39.43 38.94 39.31 38.83 35.83 29.18
48.07 47.16 45.49 49.60 50.37 50.52 50.53 50.64 50.57 50.22 50.03 48.12 43.60 34.90 48.72 50.40 37.74 38.35 34.91 37.33 39.13 38.94 41.25 38.94 38.77 38.19 36.30 37.16 35.78 36.26 35.90 39.42 43.80 43.05 38.23 41.50 38.68 33.85 36.36 41.83 43.36 42.72 40.19 39.93 33.03 31.30 34.44
45.00 46.69 45.92 46.22 49.49 49.68 50.14 50.18 50.15 49.73 49.55 45.22 38.56 37.14 46.71 47.56 32.45 34.42 36.78 37.17 39.46 37.58 37.89 37.67 36.40 37.79 38.73 35.80 32.42 35.69 36.78 41.52 42.01 41.03 39.66 41.66 36.83 30.79 32.89 37.66 40.46 38.39 40.20 40.34 38.85 38.16 32.23
44.79 44.30 45.89 46.03 47.78 48.42 48.22 49.27 50.06 49.86 49.51 44.97 36.47 31.88 36.78 39.61 41.73 37.28 34.89 34.52 35.03 39.57 38.50 39.01 37.63 39.13 36.92 34.70 37.09 34.29 35.47 39.55 42.61 41.48 41.70 41.74 36.76 33.09 28.85 32.97 37.16 34.44 37.91 39.76 38.14 31.45 33.00
43.34 43.91 43.63 44.35 45.86 47.33 48.00 47.92 48.57 50.00 49.01 42.96 37.92 35.23 38.58 30.85 33.57 38.13 38.39 36.58 34.09 34.19 38.49 39.33 36.96 37.07 36.08 32.71 34.29 34.13 37.04 38.16 42.25 42.78 41.11 40.72 33.75 36.12 36.82 37.63 37.58 36.70 36.63 37.44 35.82 36.69 32.74
42.80 43.06 43.49 43.95 45.53 46.29 47.47 47.73 47.62 48.63 48.42 40.40 32.58 36.65 39.93 38.58 38.28 37.07 36.63 35.90 35.30 36.27 37.15 35.25 35.02 37.25 37.79 34.74 36.19 34.55 37.11 38.03 37.36 40.43 39.36 40.56 32.90 34.98 32.06 35.62 35.91 34.38 36.62 37.16 37.08 37.36 37.20
42.75 42.79 43.15 43.98 44.96 45.52 46.02 46.15 47.40 47.85 47.88 34.97 38.83 43.42 40.05 38.20 37.11 33.56 35.58 35.81 35.81 38.00 38.49 39.33 38.34 36.96 35.86 37.75 40.72 41.97 42.47 41.92 40.70 38.38 37.08 37.13 34.98 32.02 27.72 34.39 34.01 29.72 35.05 36.70 37.63 39.07 38.46
42.33 42.91 43.41 43.94 44.40 45.31 45.61 46.13 46.40 47.19 45.75 37.64 39.70 42.34 37.31 34.17 36.42 35.47 36.36 37.19 36.64 36.96 35.63 38.45 39.31 36.89 39.95 43.69 42.98 42.33 41.34 40.25 40.08 39.71 40.71 35.86 34.56 33.51 29.19 31.03 21.46 34.35 40.29 40.37 38.29 39.26 40.63
41.66 42.29 42.86 43.66 44.01 44.50 45.24 45.62 46.13 46.20 46.73 41.07 42.13 39.89 36.57 35.26 36.94 35.93 37.08 36.56 37.43 38.25 36.96 37.09 39.65 41.18 42.33 40.00 33.81 31.09 31.76 33.26 35.53 38.32 38.31 39.12 35.71 31.14 26.71 26.92 31.20 34.33 37.46 38.18 35.22 35.73 41.27
41.41 41.92 42.52 42.97 43.46 44.22 45.06 45.26 45.61 45.56 45.97 45.27 43.15 46.13 40.88 35.84 33.82 39.64 37.39 37.94 35.32 35.07 35.28 37.28 41.36 43.20 41.23 36.54 31.79 24.97 23.91 29.16 28.98 33.61 39.16 37.98 37.66 31.44 29.47 23.92 21.70 33.28 39.22 41.97 41.41 31.94 42.02
41.27 41.61 42.07 42.45 42.80 43.30 43.91 44.30 44.66 44.97 45.25 40.79 37.76 42.64 41.23 36.57 39.98 39.89 36.90 36.34 39.50 37.31 34.89 36.47 37.52 37.29 40.36 33.00 28.23 26.76 26.82 32.86 26.87 27.66 30.18 32.48 33.06 29.16 29.20 26.81 30.62 38.33 40.37 41.89 28.85 32.96 40.84
40.99 41.29 41.68 42.25 42.62 42.93 43.44 43.84 44.18 44.34 44.66 42.18 39.79 43.51 37.61 35.58 40.42 42.60 42.60 39.37 39.10 38.81 33.57 37.07 35.35 36.16 35.06 29.82 29.15 29.45 29.16 31.76 30.94 32.89 30.98 30.42 29.40 29.29 30.25 27.04 24.38 41.44 39.26 34.00 38.29 40.15 39.98
41.42 41.06 41.60 42.11 42.41 42.86 43.25 43.48 43.95 44.06 43.60 42.26 37.34 42.30 43.31 38.76 37.99 44.27 44.94 45.64 44.39 43.05 39.46 38.63 36.40 35.73 37.16 33.12 33.37 33.23 30.17 33.20 32.16 27.99 36.78 29.58 34.01 32.36 32.87 32.97 40.72 41.60 40.50 42.64 40.76 39.99 40.18

GFSGBSN_sfc_wetblb_138.txt.gz
Wetbulb
62.86 62.90 62.64 62.36 62.07 61.47 60.65 59.70 58.31 57.40 57.11 56.66 55.95 55.19 54.14 53.37 53.02 53.08 53.44 53.89 53.85 54.10 54.69 55.87 55.77 56.07 55.95 50.60 49.55 57.35 60.01 60.25 57.83 55.65 53.16 51.83 49.79 50.12 48.60 50.15 50.84 48.99 49.63 50.44 51.46 50.94 50.76
62.27 62.25 62.12 61.59 60.72 59.92 59.45 58.10 56.87 56.49 56.08 55.34 54.47 53.39 52.23 52.05 52.22 52.84 53.23 54.08 54.57 54.46 54.45 55.42 55.26 54.89 52.41 44.62 54.25 55.97 55.57 54.45 54.83 54.94 53.63 53.45 51.62 53.08 50.34 49.27 48.99 50.31 50.07 51.09 51.23 50.81 51.35
58.30 59.19 58.84 57.93 57.43 57.64 56.50 55.55 55.41 55.50 55.16 54.64 53.40 51.99 51.45 51.38 51.78 52.58 53.27 53.76 54.55 55.26 55.11 55.39 55.03 53.73 49.43 47.81 54.77 55.12 54.75 53.58 54.17 55.44 53.59 54.41 54.51 51.47 50.90 48.99 52.50 50.36 46.94 48.46 49.01 49.53 49.16
56.69 57.52 56.99 56.38 55.94 55.96 54.99 54.45 54.86 54.62 54.80 54.07 52.91 51.62 50.88 50.80 51.59 52.50 52.93 53.24 53.89 54.45 54.88 55.68 55.19 53.76 46.75 54.62 54.72 51.96 53.29 52.67 54.06 54.41 52.97 53.95 56.21 52.75 50.86 52.16 50.49 47.64 47.54 43.33 48.96 49.91 50.47
56.02 56.62 56.40 56.02 55.26 54.67 54.40 54.45 54.61 54.01 54.14 54.13 52.77 51.71 50.54 50.67 51.04 52.18 52.62 53.21 53.50 54.32 54.35 55.15 53.23 52.79 46.32 53.90 50.18 55.88 56.78 54.14 54.23 53.61 52.92 55.12 54.39 51.10 51.47 46.70 44.65 46.88 42.30 44.79 46.51 50.33 49.53
55.80 56.39 56.36 55.68 55.22 54.71 53.70 53.30 53.89 53.98 53.79 54.35 53.18 51.31 50.35 50.28 51.16 52.26 52.72 52.60 53.30 52.83 53.74 54.87 53.39 46.43 49.40 46.71 52.45 55.04 57.81 57.01 54.28 53.53 51.59 51.10 49.97 47.06 47.10 45.35 38.87 42.12 43.26 45.37 45.03 48.47 48.53
55.70 55.30 56.57 56.02 55.40 55.22 54.51 53.59 52.80 52.87 53.30 54.24 53.54 51.76 50.29 50.27 51.26 52.49 51.14 51.61 49.26 49.21 50.08 47.53 48.80 47.54 48.75 51.72 53.02 50.83 55.94 54.99 54.38 50.88 45.11 49.46 45.04 42.47 45.41 47.27 46.73 46.16 44.51 43.54 45.90 47.97 46.82
55.54 55.40 54.93 55.74 55.60 55.36 55.08 54.34 53.12 52.47 52.23 53.13 52.95 51.64 50.33 50.21 51.36 52.03 50.38 47.64 49.16 50.10 42.25 48.61 49.20 48.37 49.90 49.63 45.16 49.03 55.47 50.18 49.56 44.86 47.69 45.71 42.62 47.46 48.64 47.28 45.95 45.60 43.68 42.57 45.04 47.40 46.73
55.12 55.20 55.03 55.08 55.30 55.30 55.16 54.73 53.86 52.97 52.51 53.28 52.64 51.80 50.11 49.89 51.49 49.60 48.69 49.79 53.91 52.99 42.96 44.67 47.02 45.97 46.33 47.71 44.38 45.75 49.33 50.28 46.84 44.99 45.53 43.28 45.55 48.70 46.33 45.61 43.98 44.50 42.61 42.64 42.17 45.04 46.09
54.79 54.60 54.59 54.57 54.81 55.06 55.01 54.81 54.45 53.96 53.28 53.41 52.43 51.55 50.39 49.73 45.90 50.71 49.05 53.11 54.15 54.14 38.63 41.51 43.19 45.68 47.42 47.06 43.29 49.05 48.33 47.46 46.14 43.25 44.77 44.56 47.65 45.52 45.13 43.05 44.14 39.97 44.85 43.62 42.70 40.95 36.43
53.62 53.78 54.01 53.84 54.26 54.27 54.21 54.07 54.04 53.79 53.09 53.01 51.79 51.20 50.14 48.32 47.45 47.05 52.63 54.48 54.11 52.13 27.79 43.93 43.33 50.58 49.77 43.92 47.53 45.68 48.99 45.94 42.42 44.04 44.47 42.17 43.44 43.05 41.94 43.02 45.38 41.71 45.41 43.25 42.44 39.80 38.64
52.82 52.87 53.03 53.49 53.39 53.53 53.31 53.29 53.18 53.12 52.71 52.60 51.59 51.18 50.06 47.99 47.96 52.10 53.90 54.19 52.19 38.41 28.01 41.00 45.99 43.49 45.05 45.53 45.62 49.66 47.24 48.11 46.21 41.77 43.19 42.95 46.15 45.36 44.32 45.77 45.44 45.97 42.49 42.08 41.71 39.45 32.59
51.67 52.42 52.60 52.59 52.74 52.96 52.89 53.06 52.88 52.67 52.56 52.23 51.63 51.21 49.04 49.58 45.99 53.54 53.49 49.56 35.59 29.99 42.00 39.02 41.45 43.99 43.56 42.91 43.51 44.98 42.82 40.77 39.11 35.08 35.82 40.10 41.07 45.41 46.32 42.23 44.90 42.91 39.17 31.70 30.77 31.68 31.55
50.43 51.02 51.88 52.17 52.08 52.33 52.50 52.48 52.33 52.17 52.16 52.13 51.29 50.65 49.43 49.42 51.16 52.92 50.37 40.52 28.14 35.60 36.72 41.50 41.28 43.40 40.86 43.94 43.76 44.16 42.42 39.98 43.19 42.59 39.40 36.36 34.80 41.87 45.14 42.14 40.44 41.39 40.42 33.79 26.15 28.71 32.26
48.85 49.80 50.76 51.43 51.69 51.75 51.99 51.98 52.04 51.88 51.74 51.51 50.70 48.59 47.99 49.59 52.07 51.28 43.37 31.71 30.36 35.36 39.86 38.16 40.25 37.18 39.20 41.95 42.77 43.32 42.67 41.35 43.63 43.83 38.30 37.16 37.72 44.93 45.26 45.57 43.68 39.91 37.14 41.83 36.03 36.76 32.21
47.19 48.97 48.58 49.98 51.04 51.45 51.30 51.60 51.58 51.68 51.64 51.13 46.69 44.97 45.59 52.36 52.52 46.72 38.89 32.62 35.15 39.89 39.97 39.49 34.31 38.54 36.30 39.00 39.54 40.21 40.73 43.80 42.74 45.30 46.58 41.78 35.64 42.75 44.32 45.45 44.87 42.17 43.57 34.89 36.91 25.99 25.24
46.11 47.18 49.00 47.58 49.06 50.84 51.09 51.19 51.20 51.32 51.28 50.62 45.13 39.21 46.72 51.86 49.77 41.01 32.88 33.53 36.67 40.93 40.94 37.03 36.03 35.37 36.29 35.86 37.66 36.96 37.75 41.34 43.44 43.62 44.67 42.47 39.54 38.75 42.57 38.61 38.30 39.16 38.11 38.71 37.90 35.16 27.70
45.54 47.09 48.57 48.60 47.57 49.21 50.60 51.04 50.77 50.92 50.79 48.17 43.49 33.95 49.49 50.18 36.35 37.85 33.39 36.01 39.41 38.83 41.09 38.90 38.73 36.68 35.14 36.55 35.20 35.29 35.63 39.04 44.48 43.32 38.89 41.43 38.50 33.58 36.62 42.56 43.04 40.91 38.59 39.10 32.11 30.60 32.40
44.90 45.93 46.31 47.75 47.22 46.81 50.05 50.39 50.63 50.57 50.40 45.91 38.12 36.86 48.32 47.41 31.84 32.03 34.24 35.61 37.78 37.50 37.89 37.83 36.48 38.32 38.48 35.71 32.53 36.33 37.36 41.74 42.81 41.56 39.32 41.06 35.82 28.77 31.32 36.07 39.21 36.89 38.37 38.90 39.19 37.93 31.69
44.75 44.56 45.57 46.40 46.88 46.43 47.52 50.06 50.31 50.29 50.46 46.58 36.76 30.83 36.49 41.13 40.77 36.06 33.64 33.50 34.45 39.93 39.17 39.65 38.12 38.92 36.74 34.53 36.85 34.06 35.50 39.99 42.69 41.41 42.28 41.99 36.77 32.41 28.20 31.93 35.83 32.66 35.53 37.78 37.52 31.91 31.92
44.05 44.20 44.65 44.70 44.80 46.29 45.98 49.50 49.90 49.95 50.14 42.65 36.63 34.46 38.18 30.25 34.48 37.24 37.15 36.32 34.13 34.12 39.04 39.66 36.99 36.89 35.76 32.25 33.44 33.25 35.76 37.31 40.86 42.37 41.22 39.37 31.53 33.41 34.08 35.11 35.53 35.04 35.15 36.26 35.03 36.07 31.55
43.58 43.12 43.90 44.15 44.05 44.66 45.34 46.35 46.56 48.87 49.52 42.04 32.31 35.69 40.23 38.50 37.71 36.42 36.67 35.08 34.57 36.00 37.17 35.30 34.61 36.68 37.36 33.78 34.90 33.11 36.09 36.85 36.39 40.10 39.37 40.69 31.79 34.17 31.00 35.54 35.14 32.66 34.71 35.16 35.49 36.09 35.94
43.23 43.39 42.66 43.21 43.94 44.19 44.63 45.59 47.13 46.63 47.35 33.77 37.72 43.12 41.05 37.65 36.59 34.95 35.38 35.91 36.20 38.36 39.13 39.33 38.58 36.97 35.51 37.22 39.68 41.31 41.91 41.08 40.14 37.92 36.70 36.62 33.17 30.90 26.74 33.54 33.26 28.14 33.81 35.20 36.04 37.82 37.43
42.53 42.88 43.14 42.09 43.10 43.83 44.10 45.13 46.56 47.17 44.06 37.72 38.79 41.64 36.17 33.04 36.28 35.89 36.89 37.78 37.10 37.82 36.25 39.20 40.08 37.21 39.78 43.59 43.07 42.17 41.21 40.45 40.11 39.40 40.28 35.05 34.21 32.90 27.81 30.50 20.81 33.34 39.13 38.28 36.49 37.62 39.52
42.08 42.13 42.56 42.99 42.10 43.26 44.56 44.01 44.68 45.88 43.54 39.87 40.71 37.19 33.95 34.07 36.30 36.08 36.59 37.25 38.62 39.42 37.24 38.43 40.08 41.88 44.15 40.74 34.54 31.20 31.61 32.77 34.61 37.03 37.28 38.78 35.14 29.70 25.43 25.75 29.79 33.07 36.16 35.53 34.01 34.56 40.18
41.76 41.76 41.90 42.43 42.91 42.63 44.00 44.73 44.96 45.30 45.34 42.91 41.56 42.82 38.66 32.91 34.19 38.89 37.06 38.01 35.89 36.06 36.86 38.65 41.96 44.22 41.81 36.50 32.10 24.86 22.74 27.98 27.96 31.82 37.58 37.73 37.49 30.86 28.55 22.79 20.06 31.49 38.41 41.30 40.30 29.61 40.97
41.51 41.77 41.82 42.08 42.49 42.96 43.47 43.91 44.56 44.68 45.08 44.53 40.84 44.16 40.08 34.68 37.55 38.33 36.10 34.34 39.74 38.48 36.10 37.64 37.49 37.73 40.31 33.17 27.89 25.27 24.75 31.37 25.42 26.20 28.73 31.11 30.75 27.50 27.49 25.20 29.10 37.59 40.06 42.02 28.10 31.01 40.89
41.44 41.56 41.58 41.87 42.13 42.62 43.27 43.85 44.17 44.44 44.82 44.70 41.60 44.23 39.90 35.39 38.27 41.07 41.56 37.88 36.31 39.89 34.70 37.70 35.77 35.83 35.19 29.53 28.11 28.11 27.52 29.89 29.06 32.03 30.78 29.30 27.93 27.98 29.38 25.66 23.16 40.69 39.98 33.45 37.82 41.19 40.83
41.10 41.29 41.58 41.68 42.06 42.47 42.99 43.39 43.71 44.29 44.72 43.88 38.66 42.77 43.12 36.86 37.05 42.91 43.51 42.58 44.57 44.07 40.38 40.75 37.23 36.93 38.12 33.08 32.88 32.42 29.34 31.81 29.84 25.06 35.55 28.28 32.22 30.10 31.37 31.42 41.63 42.07 40.18 40.72 43.27 41.03 41.57

GFSGBSN_sfc_wetblb_141.txt.gz
Wetbulb
62.54 62.69 62.24 62.25 62.08 61.68 61.92 61.81 60.82 59.48 58.56 57.84 57.16 56.42 55.26 53.84 53.45 53.73 54.00 54.02 54.47 54.93 55.20 55.10 56.31 56.61 52.67 47.85 47.81 54.67 60.18 59.42 56.68 54.33 50.70 49.37 46.96 45.22 43.45 46.05 46.74 44.52 45.65 47.61 47.15 47.37 46.70
59.25 61.65 61.87 61.74 61.53 61.68 62.09 60.95 59.10 57.59 57.06 56.56 55.84 54.64 53.57 52.40 52.41 53.26 54.05 54.32 54.58 55.12 55.65 55.54 56.21 55.78 49.53 41.27 51.21 55.65 55.29 52.18 52.88 50.62 50.71 50.22 48.39 49.67 46.76 45.74 42.85 46.41 45.94 46.13 47.14 47.01 47.07
58.26 57.62 57.17 60.51 60.95 61.06 60.13 57.45 56.75 56.28 55.92 55.60 54.50 53.34 52.93 51.77 51.88 52.73 53.66 53.96 53.86 54.51 55.55 55.82 56.01 52.75 46.89 44.84 50.82 50.45 52.53 50.30 50.71 51.03 49.95 51.49 52.03 48.80 48.04 45.07 49.40 48.64 44.14 45.09 46.25 45.77 44.95
57.68 57.12 56.29 56.01 55.42 55.14 54.90 55.10 55.14 55.18 55.31 54.65 53.30 52.61 52.49 52.18 52.16 52.52 53.05 53.24 53.46 53.94 54.94 55.52 56.22 50.42 44.32 53.27 48.86 49.41 48.47 48.63 51.09 50.87 50.53 50.44 52.21 49.91 47.60 48.44 47.23 43.79 42.86 37.16 44.43 46.15 46.33
57.34 56.80 56.09 55.42 54.94 54.62 54.17 54.27 54.17 54.35 54.35 54.13 53.40 52.73 51.71 51.63 51.89 52.12 52.64 52.80 52.95 53.51 54.62 54.61 49.11 48.87 44.22 54.04 48.95 50.81 51.97 51.33 50.90 50.54 49.76 51.85 51.70 46.92 47.08 41.20 38.14 40.40 35.23 38.62 42.12 46.91 45.56
56.55 56.63 55.95 55.28 54.90 54.35 54.11 53.85 53.54 53.52 53.45 53.88 53.24 52.48 51.54 51.71 51.55 52.00 51.90 52.16 51.82 51.47 51.28 52.37 51.76 42.06 45.99 45.83 50.58 53.63 54.66 55.10 51.48 49.52 47.79 47.94 44.72 40.75 40.60 37.88 32.68 36.56 37.21 37.23 38.03 42.27 43.02
56.15 56.15 56.45 55.66 55.02 54.84 54.49 54.17 53.47 53.38 53.64 53.90 53.90 51.72 51.49 51.30 51.26 51.62 50.00 46.08 43.93 44.14 45.97 44.86 45.52 44.05 48.05 49.85 51.09 49.76 52.22 53.00 52.03 48.11 41.00 44.95 38.26 36.03 40.22 41.86 43.21 42.71 40.36 38.06 40.45 43.82 42.36
56.01 55.64 55.66 56.01 55.38 55.18 54.90 54.31 53.16 52.50 52.10 51.98 52.80 51.68 50.76 51.36 51.13 51.58 48.92 45.11 47.67 47.91 39.41 47.36 47.82 47.99 50.42 50.38 43.95 47.02 50.32 48.02 46.86 41.79 43.93 40.81 37.66 44.30 46.40 45.88 43.89 42.15 39.41 38.30 41.51 44.24 42.31
55.32 55.48 55.28 54.87 55.26 55.70 55.20 54.73 53.77 53.12 52.49 52.23 52.75 52.36 51.28 50.67 50.90 47.61 44.75 47.83 50.88 50.25 38.67 42.48 44.96 44.12 46.23 47.37 43.45 42.84 46.72 48.28 44.58 42.65 42.92 39.96 42.62 47.33 45.71 43.78 41.88 40.10 39.01 39.09 39.32 42.14 41.30
54.90 54.90 55.18 55.16 54.98 55.04 55.10 54.92 54.37 53.66 53.08 52.69 53.18 52.50 50.97 50.09 45.16 46.10 45.69 51.68 51.88 50.21 33.33 38.64 41.62 44.51 45.55 45.06 41.65 46.43 47.39 45.94 44.03 40.74 41.61 40.75 45.50 44.50 43.04 41.53 42.01 37.07 43.17 42.52 40.69 37.50 31.28
53.24 53.35 54.45 54.70 54.59 54.46 54.52 54.46 54.58 54.23 53.42 53.15 52.69 51.56 50.29 49.80 44.10 44.84 49.60 52.15 51.62 48.26 22.72 43.00 42.24 48.52 46.11 41.91 44.22 43.71 47.06 43.42 39.48 41.09 41.04 38.83 40.83 40.62 39.35 40.66 43.23 39.59 44.27 41.38 40.00 35.54 33.68
52.47 52.67 52.39 53.50 53.73 53.48 53.59 54.04 53.92 53.72 53.35 52.90 52.03 51.22 50.08 46.74 45.06 46.00 51.23 51.91 49.24 35.34 23.80 39.73 44.14 41.80 40.92 42.22 42.58 46.69 44.11 45.64 44.17 39.26 40.04 38.98 44.53 41.62 41.20 44.26 43.80 44.62 40.91 39.13 37.49 34.04 26.09
51.26 51.71 52.48 52.27 52.64 52.86 53.25 53.23 53.42 53.14 52.88 52.53 51.95 51.32 48.94 47.73 43.08 50.46 50.93 47.55 32.97 26.89 40.06 39.05 39.66 42.12 41.69 40.60 40.71 43.21 41.72 38.16 34.28 31.06 31.39 36.66 37.44 41.36 44.03 39.84 42.22 40.17 34.93 25.66 24.00 24.67 24.78
49.62 50.46 51.02 52.05 52.19 52.30 52.37 52.64 52.70 52.56 52.46 52.25 51.63 50.59 49.15 47.63 48.02 49.79 48.07 39.42 24.68 32.69 34.23 41.48 40.88 41.17 37.70 41.49 41.00 41.22 39.71 35.05 39.16 37.58 35.54 31.01 29.77 37.88 42.15 40.20 37.60 36.87 35.11 25.53 22.65 22.62 27.24
47.85 48.71 49.97 50.51 51.56 51.56 51.93 52.00 52.15 52.13 52.00 51.85 51.04 47.57 45.34 46.35 47.84 48.10 42.35 28.95 27.45 33.49 38.55 36.55 37.64 35.66 36.85 41.02 41.41 40.71 39.08 37.97 40.53 41.10 34.76 34.83 34.26 42.38 42.93 43.06 41.12 36.76 33.51 39.34 32.86 31.80 26.45
46.42 46.75 47.64 49.46 49.44 50.89 51.28 51.39 51.73 52.08 51.78 51.43 46.83 44.54 43.10 47.92 48.90 44.61 37.22 29.39 32.15 38.22 39.05 38.28 32.25 36.03 33.72 36.35 38.00 38.94 39.49 41.38 41.52 43.16 44.25 38.88 32.37 41.27 42.34 42.97 41.76 38.74 40.59 30.43 29.51 24.12 21.80
46.11 46.11 46.52 47.59 49.16 48.78 50.44 51.11 51.37 51.80 51.73 51.32 44.48 37.54 44.22 49.87 47.57 39.11 29.26 29.69 34.52 39.00 38.89 36.64 34.79 33.74 34.46 34.04 35.95 35.53 37.32 40.07 42.68 42.14 42.75 38.83 35.30 34.87 41.76 37.63 35.99 37.41 34.90 35.40 34.61 30.78 23.56
45.22 45.51 46.02 47.28 49.07 48.51 48.00 50.08 50.80 51.08 51.19 48.71 42.45 31.61 43.68 48.53 34.13 33.52 28.97 33.65 38.19 36.77 39.82 38.15 38.40 36.57 34.27 34.81 34.02 34.59 34.69 38.52 42.05 41.15 37.61 40.08 35.90 28.07 34.29 39.74 42.49 40.84 36.64 36.17 27.83 27.09 28.69
44.89 45.20 45.36 45.97 46.63 48.44 48.33 47.67 50.48 50.70 50.97 45.74 36.53 36.35 46.72 44.55 28.76 28.33 32.13 33.35 35.43 35.03 35.98 36.57 35.67 37.35 38.11 34.38 30.37 34.67 36.23 40.75 41.59 40.47 37.42 38.58 31.51 25.39 28.59 34.37 37.00 34.72 35.82 35.45 34.54 32.78 27.67
44.18 44.63 45.21 45.14 45.88 46.57 47.82 47.26 48.35 50.20 50.62 46.92 34.47 31.03 35.80 40.14 36.71 32.35 30.28 30.23 30.34 37.34 35.88 37.61 37.02 38.14 35.32 33.46 35.12 32.56 34.25 39.08 42.49 40.90 41.95 40.73 34.63 29.52 23.94 28.98 32.91 29.60 32.97 34.78 32.20 24.19 26.58
43.66 44.22 44.55 44.65 45.06 45.46 45.84 47.26 46.88 49.50 50.07 47.03 35.25 32.47 35.99 30.61 32.67 33.67 34.68 33.86 31.28 30.32 36.19 37.93 35.77 35.49 33.95 29.64 31.75 31.50 34.32 36.01 39.71 42.44 39.96 36.51 28.28 30.85 32.90 33.35 33.05 32.69 32.77 33.50 31.51 32.10 28.07
43.17 43.68 44.04 44.35 44.41 45.04 45.01 45.68 46.74 46.82 49.66 44.84 32.35 32.33 37.82 33.36 36.75 33.55 34.37 32.14 32.39 34.05 34.63 33.75 33.54 35.53 35.38 31.62 33.19 31.07 34.13 33.76 33.11 36.74 35.58 37.19 27.27 31.18 29.20 33.35 33.61 31.25 33.24 33.02 33.21 33.31 32.66
42.96 43.31 43.65 43.76 43.84 44.41 44.79 44.89 45.53 46.07 47.91 39.25 34.35 39.35 38.94 35.88 33.78 32.12 31.51 32.81 33.51 36.35 37.33 37.77 36.28 34.11 32.68 34.85 37.24 37.31 38.18 37.93 37.64 35.11 33.11 33.73 31.29 28.73 24.48 31.34 30.93 25.23 30.31 32.49 33.39 35.03 33.81
42.58 42.79 43.04 43.61 43.41 43.51 43.93 44.58 44.77 45.58 45.66 36.73 34.29 39.94 32.33 31.55 33.07 32.42 34.28 35.33 34.79 35.31 33.55 38.03 38.46 36.26 38.42 41.45 39.67 38.11 37.44 37.55 36.97 36.51 38.17 32.26 30.22 30.53 25.41 25.88 16.67 29.15 36.61 36.79 34.36 34.98 35.29
42.36 42.49 42.83 42.83 43.32 42.90 42.83 42.98 44.43 44.72 45.07 38.41 39.94 36.30 32.69 31.21 34.60 34.69 35.03 34.99 36.17 37.27 36.68 37.21 38.25 40.58 39.97 37.55 31.72 27.84 26.65 30.05 32.51 35.26 34.53 36.08 30.44 24.36 22.36 21.56 26.21 29.70 32.44 29.66 28.77 29.74 35.71
42.05 42.28 42.41 42.36 42.50 43.10 42.19 42.25 43.43 42.86 44.17 40.10 38.69 41.01 34.11 32.13 32.98 38.31 36.00 36.63 32.57 32.81 32.99 36.18 40.27 40.50 38.78 30.98 26.15 21.62 20.55 25.05 22.84 29.48 34.94 33.85 32.27 25.16 22.19 18.34 10.58 27.50 35.14 38.69 37.49 25.30 36.36
41.73 42.04 42.13 42.12 42.20 42.64 42.52 41.53 43.34 42.66 44.27 41.49 40.07 40.66 38.08 32.16 34.98 38.83 35.15 34.40 37.24 34.83 30.51 35.20 33.98 33.81 36.01 24.53 20.16 20.17 21.41 29.30 21.12 22.22 23.96 25.04 24.34 23.35 23.31 21.96 24.66 33.78 36.64 38.78 25.13 25.58 36.22
41.16 41.79 41.88 42.18 42.54 42.18 42.45 41.52 42.17 42.85 43.04 42.38 40.27 42.35 38.51 34.87 36.23 38.74 39.44 36.31 35.85 34.96 28.63 34.56 32.00 30.48 26.63 22.04 21.67 21.98 21.18 25.06 24.30 27.00 25.92 25.00 24.17 21.14 24.65 23.13 20.93 37.76 36.77 30.21 32.92 37.03 37.92
41.23 41.15 41.61 41.61 41.71 42.36 42.54 42.89 42.73 42.43 43.19 43.17 38.43 43.08 42.29 35.57 35.77 39.82 40.89 42.08 41.68 40.63 36.53 36.52 33.72 32.92 31.11 24.41 23.17 22.96 22.39 23.10 25.67 21.62 32.71 22.24 27.75 23.16 27.82 25.24 34.13 37.06 34.27 37.43 39.97 37.56 38.06

GFSGBSN_sfc_wetblb_144.txt.gz
Wetbulb
62.59 62.78 62.30 62.03 61.71 61.49 61.73 61.13 60.54 60.09 60.03 59.72 58.40 57.55 56.68 55.21 54.22 54.22 53.85 53.88 54.35 54.76 55.14 55.77 56.01 56.72 51.88 45.80 46.19 53.43 60.81 59.24 55.56 53.26 49.51 48.07 45.26 43.42 41.26 43.43 44.15 42.04 43.92 45.25 45.88 46.32 45.17
58.88 60.16 61.60 61.49 61.47 61.51 61.88 61.36 60.49 59.76 59.06 57.72 56.76 55.75 54.65 53.88 53.44 53.64 53.88 53.81 53.91 53.99 54.67 55.55 56.06 56.33 47.65 39.03 49.49 54.16 54.45 51.48 52.25 47.88 47.74 48.48 46.47 47.99 44.93 43.81 41.29 44.67 45.71 44.80 44.95 45.63 45.14
57.70 58.09 59.96 60.89 60.58 60.90 61.22 60.52 59.98 58.48 57.40 56.55 54.98 53.52 52.75 52.51 52.65 53.18 53.50 53.39 53.37 53.60 54.12 54.74 55.72 52.50 46.42 41.04 48.55 48.86 50.23 48.79 48.97 48.47 47.28 49.44 48.19 46.76 46.38 43.94 47.21 46.20 43.18 44.18 44.69 43.83 44.46
57.15 56.69 56.64 56.10 57.48 56.16 55.49 55.41 55.39 55.47 55.05 54.21 52.93 52.56 51.81 52.08 52.09 52.42 52.46 52.56 52.75 53.25 53.69 54.37 55.21 49.50 41.89 52.08 49.55 48.73 47.10 47.05 48.76 48.78 48.44 48.81 48.46 48.04 45.69 46.50 45.08 41.53 41.24 36.45 42.19 43.69 44.87
56.89 56.42 56.00 55.39 55.01 54.69 54.53 54.49 54.40 54.42 54.58 53.87 52.75 52.68 51.81 52.15 51.56 51.73 52.04 52.07 52.30 52.97 53.20 54.28 47.90 47.57 43.43 53.80 48.14 50.43 48.53 46.07 50.41 48.36 48.17 51.05 49.46 44.93 44.64 39.17 36.00 36.84 32.30 35.69 40.16 44.76 43.94
57.13 56.56 56.04 55.33 54.93 54.75 54.58 54.16 53.80 53.43 53.63 53.83 52.80 51.75 51.40 51.84 51.18 51.06 51.45 51.69 51.40 51.02 50.05 51.63 50.60 39.64 43.99 44.69 48.57 51.59 52.16 52.97 50.43 47.99 46.21 44.93 42.86 39.07 37.93 35.62 30.71 33.51 34.23 33.83 36.59 41.45 42.02
56.68 56.99 56.40 55.57 55.13 55.05 54.93 54.56 53.86 53.13 52.94 53.10 53.39 52.17 51.23 51.57 51.44 51.12 48.83 45.35 43.09 41.78 45.09 42.73 44.79 41.53 45.97 48.88 49.91 48.21 51.75 51.29 50.37 46.13 39.87 43.07 36.65 34.68 37.99 39.49 40.81 39.70 37.28 35.95 38.56 43.27 39.72
56.44 56.30 56.68 56.14 55.49 55.41 55.39 54.66 53.72 53.22 53.01 52.76 52.55 52.38 51.07 51.11 51.02 51.21 47.75 42.70 46.79 46.09 38.41 46.12 46.38 46.36 48.65 49.09 45.14 45.48 48.90 45.88 45.63 40.81 41.96 38.90 35.37 41.28 42.93 42.54 41.22 39.80 37.38 36.73 40.65 43.45 40.54
54.82 55.96 55.62 56.12 56.16 55.65 55.49 54.60 53.27 52.81 52.55 52.26 52.13 52.21 51.75 51.16 50.36 46.14 43.42 45.84 49.35 50.73 38.63 41.52 44.80 43.16 44.76 47.92 44.10 44.96 45.75 45.79 43.34 41.06 41.06 36.57 40.07 44.89 43.56 41.92 40.55 39.00 37.11 37.19 38.03 39.84 38.44
54.22 54.89 55.17 55.31 55.11 55.23 55.49 54.66 53.67 53.23 52.83 52.53 52.26 52.57 51.59 50.21 45.23 44.97 43.63 50.55 49.64 47.59 29.02 35.67 40.72 42.24 44.01 44.72 40.51 48.68 45.52 46.57 43.23 39.82 40.81 39.76 44.60 42.82 41.37 39.73 40.97 36.42 41.70 41.24 38.65 35.08 29.91
53.30 51.61 53.61 54.79 54.70 54.75 54.53 54.71 54.37 53.74 53.15 52.69 52.49 52.67 51.02 49.53 44.13 43.78 48.20 50.94 50.49 47.08 23.48 41.16 40.97 47.47 44.72 40.55 41.99 42.13 45.45 41.96 38.18 40.24 39.78 37.47 38.86 39.65 39.21 40.14 41.59 38.43 43.03 40.17 38.32 33.28 31.02
52.58 52.89 52.36 52.35 54.18 53.88 53.92 53.99 54.36 53.95 53.44 52.86 52.48 52.22 50.10 46.35 44.61 43.96 45.97 50.93 48.44 33.41 21.71 38.07 43.04 40.68 39.49 40.68 41.12 45.13 41.56 43.93 42.39 37.36 38.91 37.75 41.25 38.88 38.71 41.94 41.62 42.74 39.12 37.06 35.11 32.59 25.73
50.74 51.18 52.19 52.38 52.05 52.86 53.39 53.18 53.60 53.66 53.27 53.02 52.49 51.54 48.26 47.42 42.59 47.44 49.91 46.69 29.36 25.09 39.39 37.80 38.92 41.01 38.76 37.90 39.19 40.83 40.38 36.92 33.91 29.82 30.18 35.02 36.07 39.32 40.86 37.47 40.18 38.10 33.88 25.65 23.70 23.68 24.87
48.72 49.52 50.14 51.50 52.06 52.52 52.34 52.36 52.67 53.07 52.85 52.48 51.91 50.73 49.07 47.03 46.56 47.34 46.90 36.05 23.74 31.68 32.74 40.12 39.96 40.12 37.41 40.45 40.10 38.66 39.33 34.96 38.33 35.47 31.93 28.44 26.83 35.79 39.84 37.71 36.09 35.48 34.35 25.91 22.13 22.44 25.73
46.86 47.49 48.52 49.60 50.22 51.60 51.65 52.13 52.06 52.38 52.16 52.15 51.13 46.72 44.35 45.54 46.32 46.23 38.91 28.04 27.93 32.34 37.04 35.06 37.19 35.09 35.95 39.70 40.49 39.19 38.05 36.77 37.82 37.93 32.02 32.33 31.02 39.25 39.57 41.47 40.63 35.52 32.20 37.05 29.57 29.40 25.62
45.97 46.16 46.61 47.20 48.80 49.39 51.03 50.91 51.29 51.89 52.18 51.57 46.84 44.94 43.58 47.27 47.30 44.03 35.64 29.41 31.33 36.98 38.00 36.71 31.74 35.97 31.35 34.43 36.50 37.57 37.61 40.69 40.04 42.42 41.12 37.41 30.54 38.66 40.81 40.66 40.06 37.32 38.98 29.26 28.28 23.46 21.15
45.10 45.87 45.78 46.07 47.10 48.80 48.75 50.27 50.97 51.06 51.77 51.33 44.60 39.43 44.26 48.72 47.47 38.55 27.79 29.88 33.56 37.80 37.75 34.07 32.63 32.43 33.28 32.06 34.07 34.28 36.31 40.15 40.15 40.64 41.22 37.16 33.54 33.15 39.31 35.52 33.42 35.21 33.77 34.80 33.17 30.79 22.28
44.44 44.92 45.42 45.49 46.25 47.82 48.94 48.55 49.19 50.80 51.15 49.81 40.89 32.18 43.03 47.68 34.91 33.90 29.32 32.15 37.12 35.18 38.04 36.45 36.74 35.52 34.12 34.28 32.82 33.62 34.50 37.60 41.29 41.29 37.26 38.99 34.54 27.42 33.60 37.95 38.28 38.14 33.83 35.31 27.94 26.87 29.25
44.06 44.47 44.97 45.52 45.52 46.21 47.12 48.54 48.50 48.88 50.59 46.44 36.74 35.84 44.84 44.41 29.15 28.80 31.48 32.79 34.58 34.29 35.18 35.49 34.92 36.79 37.18 33.51 29.41 34.06 36.62 40.55 41.12 39.07 36.88 38.00 31.99 24.60 28.15 34.50 36.56 32.65 33.76 33.79 33.98 31.34 26.98
43.85 43.93 44.44 44.79 45.53 45.37 46.01 47.18 47.92 47.53 49.27 47.09 35.21 30.67 35.11 40.43 37.94 31.91 29.56 29.76 30.00 35.70 34.08 35.54 34.73 35.79 34.60 32.73 35.14 31.50 34.54 38.56 40.67 40.12 42.43 39.97 33.33 29.42 24.81 29.37 32.73 29.53 32.07 33.59 31.44 26.37 26.66
43.07 43.47 43.84 44.24 44.81 44.95 45.45 45.64 46.96 47.59 47.55 45.74 33.84 31.23 35.85 29.54 32.83 32.94 32.85 32.19 29.21 29.03 34.64 35.80 33.01 32.74 32.33 28.38 30.44 30.08 33.95 36.36 38.75 41.66 39.54 36.12 27.35 30.22 31.73 32.37 33.06 31.13 30.95 32.14 30.47 30.92 26.53
42.85 43.13 43.38 43.96 44.22 44.66 44.88 45.43 45.52 45.73 47.24 41.68 32.74 31.26 35.20 34.07 35.90 33.78 33.13 30.52 30.65 31.78 32.56 31.07 30.14 33.21 33.57 30.10 31.49 29.76 33.30 32.57 32.53 35.68 35.13 36.99 27.77 30.22 28.12 32.63 32.73 30.45 31.83 31.62 32.35 32.53 31.96
42.21 42.82 43.07 43.52 44.00 44.06 44.44 44.73 44.76 45.45 45.35 37.07 36.17 36.84 35.02 35.05 33.15 32.28 31.57 31.70 32.41 34.61 35.74 35.64 33.88 32.82 31.75 33.02 35.29 35.86 36.41 36.50 35.74 33.51 31.49 32.80 29.55 27.49 24.90 30.92 30.28 25.31 29.35 31.36 31.95 33.80 33.07
42.26 42.57 42.77 43.04 43.47 43.89 43.73 44.01 44.37 45.14 45.05 38.61 36.04 37.64 32.36 29.48 32.54 32.65 33.82 34.07 33.19 34.56 32.92 36.37 36.97 33.67 35.98 39.76 38.17 36.60 35.58 35.64 34.99 34.21 36.02 31.53 29.72 28.84 26.05 26.86 19.03 29.25 34.92 35.04 33.28 34.58 34.63
41.87 42.10 42.71 42.81 43.07 43.41 43.39 43.24 43.45 44.26 44.95 39.51 38.87 36.78 32.01 29.89 34.13 33.75 33.93 33.91 34.94 36.42 35.47 34.88 37.47 38.98 39.44 37.83 29.43 27.01 25.31 27.76 30.70 34.02 33.69 34.57 29.54 25.29 23.02 22.15 25.42 28.37 30.75 29.69 28.48 29.10 33.48
41.38 41.84 42.56 42.64 42.72 42.67 43.20 43.25 42.65 43.87 43.92 40.81 39.35 39.41 33.58 31.40 31.31 36.66 34.53 35.46 31.49 32.07 33.22 35.31 38.94 39.51 39.21 32.17 28.86 22.30 21.95 24.95 22.39 27.79 34.26 33.10 31.10 25.14 21.52 18.10 10.81 26.26 33.02 36.58 35.33 23.48 34.27
41.88 41.66 41.91 42.39 42.46 42.39 42.36 43.04 41.89 42.65 42.61 40.18 37.85 40.38 35.74 31.24 35.52 37.97 34.58 33.48 37.03 34.17 31.65 34.00 34.08 32.91 34.90 28.40 23.95 20.59 20.92 27.82 21.13 21.75 23.51 24.02 23.65 20.52 21.61 19.17 23.34 30.74 34.55 37.06 23.52 25.40 35.60
40.89 41.61 41.69 42.09 42.16 42.37 42.29 42.63 42.13 41.34 42.85 41.83 39.17 39.87 36.01 32.74 35.21 39.14 39.90 36.73 35.67 35.61 31.11 35.21 33.04 30.06 26.62 22.00 21.77 21.54 20.84 23.97 22.61 25.21 24.48 22.97 22.39 20.80 21.86 19.24 18.20 35.44 34.64 28.54 32.14 35.38 36.18
41.43 40.91 41.72 41.84 41.94 41.84 42.29 42.27 42.25 41.67 42.25 42.62 35.89 40.07 40.05 35.64 34.56 39.82 40.82 41.73 41.35 40.35 36.71 35.53 33.14 31.58 30.33 25.06 20.70 21.55 21.08 20.71 23.04 19.41 29.48 19.01 25.95 21.45 26.10 24.24 32.54 35.83 34.66 37.77 37.37 35.91 37.00